Wetterdaten: Sonntag, 03.03.2019
Datum Zeit Temp. Aussen Temp. o. S. +5cm Feuchte Auss Luftdruck Regen Sonnenschein Regendauer Solar Windben Empfang
03.03.2019 00:00 9,4 C 8,3 C 8,3 C 90 % 1009,5 hPa 0,0 l/m 0 min 0 min 0 W/m 12,9 km/h (3 Bft) 97,87 %
03.03.2019 00:02 9,4 C 8,3 C 8,3 C 90 % 1009,5 hPa 0,0 l/m 0 min 0 min 0 W/m 6,4 km/h (2 Bft) 20,00 %
03.03.2019 00:04 9,4 C 8,3 C 8,3 C 90 % 1009,5 hPa 0,0 l/m 0 min 0 min 0 W/m 16,1 km/h (3 Bft) 70,73 %
03.03.2019 00:07 9,4 C 8,3 C 7,8 C 90 % 1009,5 hPa 0,0 l/m 0 min 0 min 0 W/m 19,3 km/h (3 Bft) 95,71 %
03.03.2019 00:08 9,4 C 8,9 C 7,8 C 90 % 1009,5 hPa 0,0 l/m 0 min 0 min 0 W/m 22,5 km/h (4 Bft) 95,83 %
03.03.2019 00:10 9,4 C 8,9 C 7,8 C 90 % 1009,5 hPa 0,0 l/m 0 min 0 min 0 W/m 19,3 km/h (3 Bft) 97,83 %
03.03.2019 00:12 9,4 C 8,9 C 7,8 C 90 % 1009,4 hPa 0,0 l/m 0 min 0 min 0 W/m 22,5 km/h (4 Bft) 97,87 %
03.03.2019 00:14 9,4 C 8,9 C 8,3 C 90 % 1009,4 hPa 0,0 l/m 0 min 0 min 0 W/m 22,5 km/h (4 Bft) 97,87 %
03.03.2019 00:16 9,4 C 8,9 C 8,3 C 89 % 1009,4 hPa 0,0 l/m 0 min 0 min 0 W/m 19,3 km/h (3 Bft) 95,74 %
03.03.2019 00:18 9,3 C 8,9 C 8,3 C 89 % 1009,3 hPa 0,0 l/m 0 min 0 min 0 W/m 22,5 km/h (4 Bft) 93,62 %
03.03.2019 00:20 9,3 C 8,9 C 7,8 C 89 % 1009,3 hPa 0,0 l/m 0 min 0 min 0 W/m 29,0 km/h (5 Bft) 95,74 %
03.03.2019 00:22 9,3 C 8,9 C 7,8 C 89 % 1009,3 hPa 0,0 l/m 0 min 0 min 0 W/m 29,0 km/h (5 Bft) 97,83 %
03.03.2019 00:24 9,3 C 8,9 C 7,8 C 89 % 1009,4 hPa 0,0 l/m 0 min 0 min 0 W/m 25,7 km/h (4 Bft) 95,74 %
03.03.2019 00:26 9,3 C 8,9 C 7,8 C 89 % 1009,3 hPa 0,0 l/m 0 min 0 min 0 W/m 35,4 km/h (5 Bft) 97,87 %
03.03.2019 00:28 9,3 C 8,9 C 8,3 C 89 % 1009,3 hPa 0,0 l/m 0 min 0 min 0 W/m 29,0 km/h (5 Bft) 95,74 %
03.03.2019 00:30 9,3 C 8,9 C 7,8 C 89 % 1009,3 hPa 0,0 l/m 0 min 0 min 0 W/m 22,5 km/h (4 Bft) 95,74 %
03.03.2019 00:32 9,3 C 8,3 C 7,8 C 88 % 1009,3 hPa 0,0 l/m 0 min 0 min 0 W/m 19,3 km/h (3 Bft) 95,65 %
03.03.2019 00:34 9,3 C 8,3 C 7,8 C 88 % 1009,3 hPa 0,0 l/m 0 min 0 min 0 W/m 19,3 km/h (3 Bft) 93,62 %
03.03.2019 00:36 9,3 C 8,3 C 7,8 C 88 % 1009,3 hPa 0,0 l/m 0 min 0 min 0 W/m 22,5 km/h (4 Bft) 93,62 %
03.03.2019 00:38 9,3 C 8,3 C 7,8 C 88 % 1009,2 hPa 0,0 l/m 0 min 0 min 0 W/m 22,5 km/h (4 Bft) 95,74 %
03.03.2019 00:40 9,2 C 8,3 C 7,8 C 88 % 1009,3 hPa 0,0 l/m 0 min 0 min 0 W/m 16,1 km/h (3 Bft) 93,62 %
03.03.2019 00:42 9,2 C 8,3 C 7,8 C 88 % 1009,3 hPa 0,0 l/m 0 min 0 min 0 W/m 19,3 km/h (3 Bft) 93,62 %
03.03.2019 00:44 9,2 C 8,9 C 7,8 C 88 % 1009,3 hPa 0,0 l/m 0 min 0 min 0 W/m 25,7 km/h (4 Bft) 95,74 %
03.03.2019 00:46 9,2 C 8,3 C 7,8 C 88 % 1009,3 hPa 0,0 l/m 0 min 0 min 0 W/m 19,3 km/h (3 Bft) 93,48 %
03.03.2019 00:48 9,2 C 8,3 C 7,8 C 88 % 1009,2 hPa 0,0 l/m 0 min 0 min 0 W/m 19,3 km/h (3 Bft) 95,74 %
03.03.2019 00:50 9,2 C 8,3 C 7,8 C 88 % 1009,2 hPa 0,0 l/m 0 min 0 min 0 W/m 19,3 km/h (3 Bft) 97,87 %
03.03.2019 00:52 9,2 C 8,9 C 7,8 C 88 % 1009,2 hPa 0,0 l/m 0 min 0 min 0 W/m 25,7 km/h (4 Bft) 95,74 %
03.03.2019 00:54 9,2 C 8,9 C 7,8 C 88 % 1009,2 hPa 0,0 l/m 0 min 0 min 0 W/m 22,5 km/h (4 Bft) 95,74 %
03.03.2019 00:56 9,2 C 8,9 C 7,8 C 88 % 1009,2 hPa 0,0 l/m 0 min 0 min 0 W/m 22,5 km/h (4 Bft) 97,83 %
03.03.2019 00:58 9,2 C 8,9 C 7,8 C 87 % 1009,2 hPa 0,0 l/m 0 min 0 min 0 W/m 16,1 km/h (3 Bft) 95,74 %
03.03.2019 01:00 9,2 C 8,9 C 7,8 C 87 % 1009,0 hPa 0,0 l/m 0 min 0 min 0 W/m 19,3 km/h (3 Bft) 95,74 %
03.03.2019 01:02 9,2 C 8,9 C 8,3 C 87 % 1009,1 hPa 0,0 l/m 0 min 0 min 0 W/m 22,5 km/h (4 Bft) 97,87 %
03.03.2019 01:04 9,2 C 8,9 C 7,8 C 87 % 1009,1 hPa 0,0 l/m 0 min 0 min 0 W/m 19,3 km/h (3 Bft) 95,74 %
03.03.2019 01:06 9,2 C 8,3 C 7,8 C 87 % 1009,1 hPa 0,0 l/m 0 min 0 min 0 W/m 19,3 km/h (3 Bft) 93,62 %
03.03.2019 01:08 9,2 C 8,3 C 7,8 C 87 % 1009,1 hPa 0,0 l/m 0 min 0 min 0 W/m 22,5 km/h (4 Bft) 95,65 %
03.03.2019 01:10 9,2 C 8,9 C 7,8 C 87 % 1009,1 hPa 0,0 l/m 0 min 0 min 0 W/m 25,7 km/h (4 Bft) 95,74 %
03.03.2019 01:12 9,2 C 8,9 C 8,3 C 87 % 1009,1 hPa 0,0 l/m 0 min 0 min 0 W/m 29,0 km/h (5 Bft) 97,87 %
03.03.2019 01:14 9,2 C 8,3 C 7,8 C 87 % 1009,1 hPa 0,0 l/m 0 min 0 min 0 W/m 19,3 km/h (3 Bft) 97,87 %
03.03.2019 01:16 9,2 C 8,9 C 7,8 C 87 % 1009,1 hPa 0,0 l/m 0 min 0 min 0 W/m 25,7 km/h (4 Bft) 97,87 %
03.03.2019 01:18 9,2 C 8,9 C 7,8 C 87 % 1008,9 hPa 0,0 l/m 0 min 0 min 0 W/m 22,5 km/h (4 Bft) 100,00 %
03.03.2019 01:20 9,2 C 8,9 C 7,8 C 87 % 1009,0 hPa 0,0 l/m 0 min 0 min 0 W/m 22,5 km/h (4 Bft) 97,83 %
03.03.2019 01:22 9,2 C 8,9 C 7,8 C 87 % 1009,1 hPa 0,0 l/m 0 min 0 min 0 W/m 22,5 km/h (4 Bft) 100,00 %
03.03.2019 01:24 9,2 C 8,3 C 7,8 C 87 % 1009,0 hPa 0,0 l/m 0 min 0 min 0 W/m 22,5 km/h (4 Bft) 97,87 %
03.03.2019 01:26 9,2 C 8,3 C 7,8 C 86 % 1009,0 hPa 0,0 l/m 0 min 0 min 0 W/m 19,3 km/h (3 Bft) 100,00 %
03.03.2019 01:28 9,2 C 8,9 C 7,8 C 86 % 1009,0 hPa 0,0 l/m 0 min 0 min 0 W/m 22,5 km/h (4 Bft) 100,00 %
03.03.2019 01:30 9,2 C 8,3 C 7,8 C 86 % 1009,1 hPa 0,0 l/m 0 min 0 min 0 W/m 16,1 km/h (3 Bft) 100,00 %
03.03.2019 01:32 9,2 C 8,3 C 7,8 C 86 % 1009,0 hPa 0,0 l/m 0 min 0 min 0 W/m 19,3 km/h (3 Bft) 100,00 %
03.03.2019 01:34 9,2 C 8,3 C 7,8 C 86 % 1009,1 hPa 0,0 l/m 0 min 0 min 0 W/m 29,0 km/h (5 Bft) 100,00 %
03.03.2019 01:36 9,2 C 8,3 C 7,8 C 86 % 1009,0 hPa 0,0 l/m 0 min 0 min 0 W/m 16,1 km/h (3 Bft) 100,00 %
03.03.2019 01:38 9,2 C 8,3 C 7,8 C 86 % 1009,0 hPa 0,0 l/m 0 min 0 min 0 W/m 16,1 km/h (3 Bft) 100,00 %
03.03.2019 01:40 9,2 C 8,3 C 7,8 C 86 % 1009,0 hPa 0,0 l/m 0 min 0 min 0 W/m 16,1 km/h (3 Bft) 100,00 %
03.03.2019 01:42 9,2 C 8,9 C 7,8 C 86 % 1009,0 hPa 0,0 l/m 0 min 0 min 0 W/m 29,0 km/h (5 Bft) 100,00 %
03.03.2019 01:44 9,2 C 8,9 C 8,3 C 86 % 1009,0 hPa 0,0 l/m 0 min 0 min 0 W/m 25,7 km/h (4 Bft) 100,00 %
03.03.2019 01:46 9,2 C 8,9 C 8,3 C 86 % 1009,0 hPa 0,0 l/m 0 min 0 min 0 W/m 22,5 km/h (4 Bft) 100,00 %
03.03.2019 01:48 9,2 C 8,9 C 8,3 C 86 % 1009,0 hPa 0,0 l/m 0 min 0 min 0 W/m 16,1 km/h (3 Bft) 100,00 %
03.03.2019 01:50 9,2 C 8,9 C 8,3 C 86 % 1008,8 hPa 0,0 l/m 0 min 0 min 0 W/m 16,1 km/h (3 Bft) 100,00 %
03.03.2019 01:52 9,2 C 8,9 C 8,3 C 86 % 1008,9 hPa 0,0 l/m 0 min 0 min 0 W/m 25,7 km/h (4 Bft) 97,87 %
03.03.2019 01:54 9,2 C 8,9 C 8,3 C 86 % 1008,9 hPa 0,0 l/m 0 min 0 min 0 W/m 19,3 km/h (3 Bft) 100,00 %
03.03.2019 01:56 9,3 C 8,9 C 8,3 C 86 % 1008,9 hPa 0,0 l/m 0 min 0 min 0 W/m 19,3 km/h (3 Bft) 100,00 %
03.03.2019 01:58 9,3 C 8,9 C 8,3 C 86 % 1008,8 hPa 0,0 l/m 0 min 0 min 0 W/m 19,3 km/h (3 Bft) 97,87 %
03.03.2019 02:00 9,3 C 8,9 C 8,3 C 85 % 1008,9 hPa 0,0 l/m 0 min 0 min 0 W/m 22,5 km/h (4 Bft) 97,87 %
03.03.2019 02:02 9,3 C 8,9 C 8,3 C 86 % 1008,8 hPa 0,0 l/m 0 min 0 min 0 W/m 16,1 km/h (3 Bft) 100,00 %
03.03.2019 02:04 9,3 C 8,9 C 8,3 C 86 % 1008,8 hPa 0,0 l/m 0 min 0 min 0 W/m 22,5 km/h (4 Bft) 100,00 %
03.03.2019 02:06 9,4 C 8,9 C 8,3 C 85 % 1008,6 hPa 0,0 l/m 0 min 0 min 0 W/m 35,4 km/h (5 Bft) 100,00 %
03.03.2019 02:08 9,4 C 8,9 C 8,3 C 85 % 1008,6 hPa 0,0 l/m 0 min 0 min 0 W/m 22,5 km/h (4 Bft) 100,00 %
03.03.2019 02:10 9,4 C 8,9 C 8,3 C 85 % 1008,7 hPa 0,0 l/m 0 min 0 min 0 W/m 19,3 km/h (3 Bft) 100,00 %
03.03.2019 02:12 9,4 C 8,9 C 8,3 C 85 % 1008,8 hPa 0,0 l/m 0 min 0 min 0 W/m 25,7 km/h (4 Bft) 100,00 %
03.03.2019 02:14 9,4 C 8,9 C 8,3 C 85 % 1008,7 hPa 0,0 l/m 0 min 0 min 0 W/m 19,3 km/h (3 Bft) 100,00 %
03.03.2019 02:16 9,5 C 8,9 C 8,3 C 85 % 1008,7 hPa 0,0 l/m 0 min 0 min 0 W/m 22,5 km/h (4 Bft) 100,00 %
03.03.2019 02:18 9,5 C 8,9 C 8,3 C 85 % 1008,7 hPa 0,0 l/m 0 min 0 min 0 W/m 19,3 km/h (3 Bft) 97,83 %
03.03.2019 02:20 9,5 C 8,9 C 8,3 C 85 % 1008,6 hPa 0,0 l/m 0 min 0 min 0 W/m 22,5 km/h (4 Bft) 95,74 %
03.03.2019 02:22 9,5 C 9,4 C 8,9 C 85 % 1008,7 hPa 0,0 l/m 0 min 0 min 0 W/m 29,0 km/h (5 Bft) 97,87 %
03.03.2019 02:24 9,6 C 9,4 C 8,3 C 84 % 1008,6 hPa 0,0 l/m 0 min 0 min 0 W/m 16,1 km/h (3 Bft) 97,87 %
03.03.2019 02:26 9,6 C 8,9 C 8,3 C 84 % 1008,6 hPa 0,0 l/m 0 min 0 min 0 W/m 25,7 km/h (4 Bft) 97,87 %
03.03.2019 02:28 9,6 C 8,9 C 8,3 C 84 % 1008,6 hPa 0,0 l/m 0 min 0 min 0 W/m 19,3 km/h (3 Bft) 97,87 %
03.03.2019 02:30 9,6 C 9,4 C 8,9 C 85 % 1008,7 hPa 0,0 l/m 0 min 0 min 0 W/m 25,7 km/h (4 Bft) 97,83 %
03.03.2019 02:32 9,6 C 9,4 C 8,9 C 84 % 1008,5 hPa 0,0 l/m 0 min 0 min 0 W/m 25,7 km/h (4 Bft) 95,74 %
03.03.2019 02:34 9,6 C 9,4 C 8,9 C 84 % 1008,5 hPa 0,0 l/m 0 min 0 min 0 W/m 22,5 km/h (4 Bft) 97,87 %
03.03.2019 02:36 9,7 C 9,4 C 8,9 C 84 % 1008,5 hPa 0,0 l/m 0 min 0 min 0 W/m 19,3 km/h (3 Bft) 97,87 %
03.03.2019 02:38 9,7 C 9,4 C 8,9 C 84 % 1008,4 hPa 0,0 l/m 0 min 0 min 0 W/m 29,0 km/h (5 Bft) 97,87 %
03.03.2019 02:40 9,7 C 9,4 C 8,9 C 84 % 1008,4 hPa 0,0 l/m 0 min 0 min 0 W/m 29,0 km/h (5 Bft) 95,74 %
03.03.2019 02:42 9,7 C 9,4 C 8,9 C 84 % 1008,4 hPa 0,0 l/m 0 min 0 min 0 W/m 32,2 km/h (5 Bft) 97,96 %
03.03.2019 02:44 9,7 C 9,4 C 8,9 C 84 % 1008,3 hPa 0,0 l/m 0 min 0 min 0 W/m 32,2 km/h (5 Bft) 97,87 %
03.03.2019 02:46 9,7 C 9,4 C 8,9 C 84 % 1008,4 hPa 0,0 l/m 0 min 0 min 0 W/m 16,1 km/h (3 Bft) 93,62 %
03.03.2019 02:48 9,7 C 9,4 C 8,9 C 84 % 1008,3 hPa 0,0 l/m 0 min 0 min 0 W/m 38,6 km/h (5 Bft) 95,74 %
03.03.2019 02:50 9,7 C 9,4 C 8,9 C 84 % 1008,3 hPa 0,0 l/m 0 min 0 min 0 W/m 32,2 km/h (5 Bft) 93,62 %
03.03.2019 02:52 9,8 C 9,4 C 8,9 C 84 % 1008,3 hPa 0,0 l/m 0 min 0 min 0 W/m 35,4 km/h (5 Bft) 95,65 %
03.03.2019 02:54 9,8 C 9,4 C 8,9 C 84 % 1008,2 hPa 0,0 l/m 0 min 0 min 0 W/m 29,0 km/h (5 Bft) 95,74 %
03.03.2019 02:56 9,8 C 9,4 C 8,9 C 84 % 1008,2 hPa 0,0 l/m 0 min 0 min 0 W/m 25,7 km/h (4 Bft) 93,62 %
03.03.2019 02:58 9,8 C 9,4 C 8,9 C 84 % 1008,3 hPa 0,0 l/m 0 min 0 min 0 W/m 35,4 km/h (5 Bft) 95,74 %
03.03.2019 03:00 9,8 C 9,4 C 8,9 C 84 % 1008,2 hPa 0,0 l/m 0 min 0 min 0 W/m 19,3 km/h (3 Bft) 91,49 %
03.03.2019 03:02 9,8 C 9,4 C 8,9 C 84 % 1008,2 hPa 0,0 l/m 0 min 0 min 0 W/m 32,2 km/h (5 Bft) 95,74 %
03.03.2019 03:04 9,8 C 9,4 C 8,9 C 84 % 1007,9 hPa 0,0 l/m 0 min 0 min 0 W/m 29,0 km/h (5 Bft) 95,65 %
03.03.2019 03:06 9,8 C 9,4 C 8,9 C 84 % 1007,9 hPa 0,0 l/m 0 min 0 min 0 W/m 29,0 km/h (5 Bft) 95,74 %
03.03.2019 03:08 9,8 C 9,4 C 8,9 C 84 % 1008,0 hPa 0,0 l/m 0 min 0 min 0 W/m 32,2 km/h (5 Bft) 95,74 %
03.03.2019 03:10 9,8 C 9,4 C 8,9 C 84 % 1007,9 hPa 0,0 l/m 0 min 0 min 0 W/m 25,7 km/h (4 Bft) 93,62 %
03.03.2019 03:12 9,8 C 9,4 C 8,9 C 83 % 1008,0 hPa 0,0 l/m 0 min 0 min 0 W/m 25,7 km/h (4 Bft) 93,62 %
03.03.2019 03:14 9,8 C 8,9 C 8,9 C 83 % 1007,9 hPa 0,0 l/m 0 min 0 min 0 W/m 25,7 km/h (4 Bft) 95,74 %
03.03.2019 03:16 9,8 C 9,4 C 8,9 C 83 % 1007,9 hPa 0,0 l/m 0 min 0 min 0 W/m 35,4 km/h (5 Bft) 93,48 %
03.03.2019 03:18 9,8 C 9,4 C 8,3 C 84 % 1007,9 hPa 0,0 l/m 0 min 0 min 0 W/m 32,2 km/h (5 Bft) 97,87 %
03.03.2019 03:20 9,7 C 9,4 C 8,3 C 84 % 1007,8 hPa 0,0 l/m 0 min 0 min 0 W/m 29,0 km/h (5 Bft) 89,36 %
03.03.2019 03:22 9,7 C 9,4 C 8,9 C 84 % 1007,8 hPa 0,0 l/m 0 min 0 min 0 W/m 25,7 km/h (4 Bft) 95,74 %
03.03.2019 03:24 9,7 C 9,4 C 8,3 C 84 % 1007,8 hPa 0,0 l/m 0 min 0 min 0 W/m 25,7 km/h (4 Bft) 95,74 %
03.03.2019 03:26 9,7 C 8,9 C 8,3 C 84 % 1007,7 hPa 0,0 l/m 0 min 0 min 0 W/m 25,7 km/h (4 Bft) 97,87 %
03.03.2019 03:28 9,7 C 8,9 C 8,3 C 84 % 1007,7 hPa 0,0 l/m 0 min 0 min 0 W/m 22,5 km/h (4 Bft) 97,83 %
03.03.2019 03:30 9,7 C 8,9 C 8,3 C 84 % 1007,7 hPa 0,0 l/m 0 min 0 min 0 W/m 32,2 km/h (5 Bft) 93,62 %
03.03.2019 03:32 9,7 C 9,4 C 8,3 C 84 % 1007,7 hPa 0,0 l/m 0 min 0 min 0 W/m 25,7 km/h (4 Bft) 97,87 %
03.03.2019 03:34 9,7 C 8,9 C 8,3 C 84 % 1007,8 hPa 0,0 l/m 0 min 0 min 0 W/m 19,3 km/h (3 Bft) 97,87 %
03.03.2019 03:36 9,7 C 8,9 C 8,3 C 84 % 1007,7 hPa 0,0 l/m 0 min 0 min 0 W/m 29,0 km/h (5 Bft) 97,87 %
03.03.2019 03:38 9,7 C 8,9 C 8,3 C 84 % 1007,7 hPa 0,0 l/m 0 min 0 min 0 W/m 25,7 km/h (4 Bft) 95,74 %
03.03.2019 03:40 9,7 C 8,9 C 8,3 C 84 % 1007,7 hPa 0,0 l/m 0 min 0 min 0 W/m 29,0 km/h (5 Bft) 97,83 %
03.03.2019 03:42 9,7 C 8,9 C 8,3 C 84 % 1007,7 hPa 0,0 l/m 0 min 0 min 0 W/m 35,4 km/h (5 Bft) 97,87 %
03.03.2019 03:44 9,7 C 8,9 C 8,3 C 84 % 1007,6 hPa 0,0 l/m 0 min 0 min 0 W/m 25,7 km/h (4 Bft) 97,87 %
03.03.2019 03:46 9,7 C 8,9 C 8,3 C 84 % 1007,7 hPa 0,0 l/m 0 min 0 min 0 W/m 29,0 km/h (5 Bft) 95,74 %
03.03.2019 03:48 9,7 C 8,9 C 8,3 C 84 % 1007,7 hPa 0,0 l/m 0 min 0 min 0 W/m 29,0 km/h (5 Bft) 97,87 %
03.03.2019 03:50 9,7 C 8,9 C 8,3 C 84 % 1007,6 hPa 0,0 l/m 0 min 0 min 0 W/m 35,4 km/h (5 Bft) 95,74 %
03.03.2019 03:52 9,7 C 9,4 C 8,9 C 84 % 1007,6 hPa 0,0 l/m 0 min 0 min 0 W/m 41,8 km/h (6 Bft) 97,83 %
03.03.2019 03:54 9,7 C 9,4 C 8,9 C 84 % 1007,5 hPa 0,0 l/m 0 min 0 min 0 W/m 32,2 km/h (5 Bft) 95,74 %
03.03.2019 03:56 9,7 C 9,4 C 8,9 C 84 % 1007,5 hPa 0,0 l/m 0 min 0 min 0 W/m 29,0 km/h (5 Bft) 97,87 %
03.03.2019 03:58 9,7 C 9,4 C 8,9 C 84 % 1007,6 hPa 0,0 l/m 0 min 0 min 0 W/m 32,2 km/h (5 Bft) 97,87 %
03.03.2019 04:00 9,7 C 8,9 C 8,9 C 84 % 1007,5 hPa 0,0 l/m 0 min 0 min 0 W/m 22,5 km/h (4 Bft) 95,74 %
03.03.2019 04:02 9,7 C 9,4 C 8,9 C 84 % 1007,5 hPa 0,0 l/m 0 min 0 min 0 W/m 29,0 km/h (5 Bft) 100,00 %
03.03.2019 04:04 9,7 C 9,4 C 8,9 C 84 % 1007,5 hPa 0,0 l/m 0 min 0 min 0 W/m 22,5 km/h (4 Bft) 100,00 %
03.03.2019 04:06 9,7 C 8,9 C 8,3 C 84 % 1007,3 hPa 0,0 l/m 0 min 0 min 0 W/m 22,5 km/h (4 Bft) 97,87 %
03.03.2019 04:08 9,7 C 8,9 C 8,3 C 84 % 1007,3 hPa 0,0 l/m 0 min 0 min 0 W/m 25,7 km/h (4 Bft) 97,87 %
03.03.2019 04:10 9,7 C 8,9 C 8,3 C 84 % 1007,2 hPa 0,0 l/m 0 min 0 min 0 W/m 22,5 km/h (4 Bft) 97,87 %
03.03.2019 04:12 9,7 C 8,9 C 8,3 C 84 % 1007,2 hPa 0,0 l/m 0 min 0 min 0 W/m 19,3 km/h (3 Bft) 97,87 %
03.03.2019 04:14 9,7 C 8,9 C 8,3 C 84 % 1007,2 hPa 0,0 l/m 0 min 0 min 0 W/m 19,3 km/h (3 Bft) 97,87 %
03.03.2019 04:16 9,7 C 9,4 C 8,3 C 84 % 1007,3 hPa 0,0 l/m 0 min 0 min 0 W/m 22,5 km/h (4 Bft) 97,83 %
03.03.2019 04:18 9,7 C 9,4 C 8,3 C 84 % 1007,3 hPa 0,0 l/m 0 min 0 min 0 W/m 19,3 km/h (3 Bft) 97,87 %
03.03.2019 04:20 9,7 C 9,4 C 8,9 C 84 % 1007,3 hPa 0,0 l/m 0 min 0 min 0 W/m 16,1 km/h (3 Bft) 97,87 %
03.03.2019 04:22 9,7 C 8,9 C 8,3 C 85 % 1007,4 hPa 0,0 l/m 0 min 2 min 0 W/m 16,1 km/h (3 Bft) 100,00 %
03.03.2019 04:24 9,7 C 8,9 C 8,3 C 85 % 1007,3 hPa 0,0 l/m 0 min 2 min 0 W/m 29,0 km/h (5 Bft) 100,00 %
03.03.2019 04:26 9,7 C 8,9 C 8,3 C 85 % 1007,3 hPa 0,0 l/m 0 min 2 min 0 W/m 25,7 km/h (4 Bft) 100,00 %
03.03.2019 04:28 9,7 C 8,9 C 8,3 C 85 % 1007,2 hPa 0,0 l/m 0 min 0 min 0 W/m 19,3 km/h (3 Bft) 100,00 %
03.03.2019 04:30 9,7 C 8,9 C 8,3 C 85 % 1007,1 hPa 0,0 l/m 0 min 0 min 0 W/m 29,0 km/h (5 Bft) 100,00 %
03.03.2019 04:32 9,7 C 8,9 C 8,3 C 85 % 1007,2 hPa 0,0 l/m 0 min 0 min 0 W/m 19,3 km/h (3 Bft) 100,00 %
03.03.2019 04:34 9,7 C 9,4 C 8,3 C 85 % 1007,2 hPa 0,0 l/m 0 min 0 min 0 W/m 19,3 km/h (3 Bft) 100,00 %
03.03.2019 04:36 9,7 C 9,4 C 8,3 C 85 % 1007,2 hPa 0,0 l/m 0 min 0 min 0 W/m 25,7 km/h (4 Bft) 100,00 %
03.03.2019 04:38 9,7 C 8,9 C 8,3 C 85 % 1007,2 hPa 0,0 l/m 0 min 2 min 0 W/m 19,3 km/h (3 Bft) 100,00 %
03.03.2019 04:40 9,7 C 8,9 C 8,3 C 85 % 1007,2 hPa 0,0 l/m 0 min 0 min 0 W/m 16,1 km/h (3 Bft) 97,87 %
03.03.2019 04:42 9,7 C 8,9 C 7,8 C 85 % 1007,2 hPa 0,0 l/m 0 min 2 min 0 W/m 25,7 km/h (4 Bft) 100,00 %
03.03.2019 04:44 9,7 C 8,3 C 7,8 C 85 % 1007,2 hPa 0,0 l/m 0 min 2 min 0 W/m 32,2 km/h (5 Bft) 97,87 %
03.03.2019 04:46 9,7 C 8,3 C 7,2 C 85 % 1007,2 hPa 0,0 l/m 0 min 2 min 0 W/m 29,0 km/h (5 Bft) 100,00 %
03.03.2019 04:48 9,7 C 7,8 C 7,2 C 85 % 1007,0 hPa 0,0 l/m 0 min 2 min 0 W/m 29,0 km/h (5 Bft) 100,00 %
03.03.2019 04:50 9,7 C 7,8 C 7,2 C 85 % 1007,1 hPa 0,0 l/m 0 min 2 min 0 W/m 22,5 km/h (4 Bft) 100,00 %
03.03.2019 04:52 9,7 C 7,8 C 7,2 C 86 % 1007,0 hPa 0,0 l/m 0 min 2 min 0 W/m 25,7 km/h (4 Bft) 100,00 %
03.03.2019 04:54 9,7 C 7,8 C 7,2 C 86 % 1007,0 hPa 0,0 l/m 0 min 2 min 0 W/m 19,3 km/h (3 Bft) 100,00 %
03.03.2019 04:56 9,7 C 7,8 C 7,2 C 86 % 1006,9 hPa 0,0 l/m 0 min 2 min 0 W/m 25,7 km/h (4 Bft) 97,87 %
03.03.2019 04:58 9,6 C 7,8 C 7,2 C 86 % 1007,0 hPa 0,0 l/m 0 min 2 min 0 W/m 16,1 km/h (3 Bft) 100,00 %
03.03.2019 05:00 9,6 C 7,8 C 7,2 C 86 % 1006,9 hPa 0,0 l/m 0 min 2 min 0 W/m 19,3 km/h (3 Bft) 100,00 %
03.03.2019 05:02 9,6 C 7,8 C 7,2 C 87 % 1006,9 hPa 0,0 l/m 0 min 2 min 0 W/m 16,1 km/h (3 Bft) 97,83 %
03.03.2019 05:04 9,6 C 7,8 C 7,2 C 87 % 1006,9 hPa 0,0 l/m 0 min 2 min 0 W/m 12,9 km/h (3 Bft) 100,00 %
03.03.2019 05:05 9,6 C 7,8 C 7,2 C 87 % 1006,8 hPa 0,0 l/m 0 min 1 min 0 W/m 29,0 km/h (5 Bft) 100,00 %
03.03.2019 05:10 9,5 C 8,3 C 7,2 C 86 % 1006,8 hPa 0,0 l/m 0 min 5 min 0 W/m 29,0 km/h (5 Bft) 100,00 %
03.03.2019 05:12 9,5 C 8,3 C 7,2 C 86 % 1006,8 hPa 0,0 l/m 0 min 2 min 0 W/m 22,5 km/h (4 Bft) 100,00 %
03.03.2019 05:14 9,5 C 8,3 C 7,2 C 86 % 1006,8 hPa 0,0 l/m 0 min 2 min 0 W/m 25,7 km/h (4 Bft) 100,00 %
03.03.2019 05:20 9,5 C 8,3 C 7,2 C 86 % 1006,7 hPa 0,0 l/m 0 min 5 min 0 W/m 29,0 km/h (5 Bft) 100,00 %
03.03.2019 05:22 9,5 C 8,3 C 7,2 C 86 % 1006,8 hPa 0,0 l/m 0 min 2 min 0 W/m 29,0 km/h (5 Bft) 94,29 %
03.03.2019 05:24 9,5 C 8,3 C 7,2 C 86 % 1006,7 hPa 0,0 l/m 0 min 2 min 0 W/m 29,0 km/h (5 Bft) 97,87 %
03.03.2019 05:26 9,5 C 8,3 C 7,2 C 87 % 1006,7 hPa 0,0 l/m 0 min 2 min 0 W/m 38,6 km/h (5 Bft) 97,87 %
03.03.2019 05:28 9,5 C 8,3 C 7,2 C 87 % 1006,7 hPa 0,0 l/m 0 min 2 min 0 W/m 25,7 km/h (4 Bft) 97,83 %
03.03.2019 05:30 9,6 C 8,3 C 7,2 C 87 % 1006,7 hPa 0,0 l/m 0 min 2 min 0 W/m 22,5 km/h (4 Bft) 97,87 %
03.03.2019 05:32 9,5 C 8,3 C 7,2 C 87 % 1006,6 hPa 0,0 l/m 0 min 2 min 0 W/m 19,3 km/h (3 Bft) 97,87 %
03.03.2019 05:34 9,5 C 8,3 C 7,2 C 87 % 1006,7 hPa 0,0 l/m 0 min 2 min 0 W/m 19,3 km/h (3 Bft) 97,87 %
03.03.2019 05:36 9,5 C 8,3 C 7,2 C 87 % 1006,7 hPa 0,0 l/m 0 min 2 min 0 W/m 22,5 km/h (4 Bft) 96,55 %
03.03.2019 05:38 9,5 C 8,3 C 7,2 C 87 % 1006,7 hPa 0,0 l/m 0 min 2 min 0 W/m 19,3 km/h (3 Bft) 97,22 %
03.03.2019 05:40 9,5 C 8,3 C 7,2 C 87 % 1006,6 hPa 0,0 l/m 0 min 0 min 0 W/m 22,5 km/h (4 Bft) 97,83 %
03.03.2019 05:42 9,5 C 8,3 C 7,2 C 87 % 1006,6 hPa 0,0 l/m 0 min 2 min 0 W/m 25,7 km/h (4 Bft) 97,87 %
03.03.2019 05:44 9,5 C 8,9 C 7,2 C 87 % 1006,5 hPa 0,0 l/m 0 min 2 min 0 W/m 25,7 km/h (4 Bft) 97,87 %
03.03.2019 05:46 9,5 C 8,9 C 7,8 C 87 % 1006,4 hPa 0,0 l/m 0 min 2 min 0 W/m 25,7 km/h (4 Bft) 97,87 %
03.03.2019 05:48 9,5 C 8,9 C 7,8 C 87 % 1006,4 hPa 0,0 l/m 0 min 0 min 0 W/m 25,7 km/h (4 Bft) 91,49 %
03.03.2019 05:50 9,5 C 8,9 C 8,3 C 86 % 1006,4 hPa 0,0 l/m 0 min 0 min 0 W/m 25,7 km/h (4 Bft) 93,48 %
03.03.2019 05:52 9,5 C 8,9 C 8,3 C 86 % 1006,4 hPa 0,0 l/m 0 min 0 min 0 W/m 29,0 km/h (5 Bft) 95,74 %
03.03.2019 05:54 9,6 C 8,9 C 8,3 C 86 % 1006,5 hPa 0,0 l/m 0 min 2 min 0 W/m 29,0 km/h (5 Bft) 95,74 %
03.03.2019 05:56 9,6 C 8,9 C 8,3 C 86 % 1006,3 hPa 0,0 l/m 0 min 2 min 0 W/m 25,7 km/h (4 Bft) 95,74 %
03.03.2019 05:58 9,6 C 9,4 C 8,3 C 86 % 1006,4 hPa 0,0 l/m 0 min 2 min 0 W/m 29,0 km/h (5 Bft) 93,62 %
03.03.2019 06:00 9,6 C 9,4 C 8,3 C 86 % 1006,3 hPa 0,0 l/m 0 min 2 min 0 W/m 29,0 km/h (5 Bft) 93,62 %
03.03.2019 06:02 9,6 C 8,9 C 8,3 C 86 % 1006,4 hPa 0,0 l/m 0 min 0 min 0 W/m 16,1 km/h (3 Bft) 95,65 %
03.03.2019 06:04 9,7 C 8,3 C 7,8 C 86 % 1006,2 hPa 0,0 l/m 0 min 2 min 0 W/m 22,5 km/h (4 Bft) 93,62 %
03.03.2019 06:08 9,7 C 7,8 C 7,2 C 86 % 1006,2 hPa 0,0 l/m 0 min 4 min 0 W/m 29,0 km/h (5 Bft) 96,81 %
03.03.2019 06:10 9,7 C 7,8 C 7,2 C 86 % 1006,2 hPa 0,2 l/m 0 min 2 min 0 W/m 19,3 km/h (3 Bft) 93,62 %
03.03.2019 06:12 9,7 C 7,8 C 7,2 C 87 % 1006,2 hPa 0,0 l/m 0 min 2 min 0 W/m 32,2 km/h (5 Bft) 93,62 %
03.03.2019 06:14 9,7 C 7,8 C 7,2 C 87 % 1006,2 hPa 0,0 l/m 0 min 2 min 0 W/m 29,0 km/h (5 Bft) 97,83 %
03.03.2019 06:16 9,7 C 8,3 C 7,2 C 87 % 1006,2 hPa 0,0 l/m 0 min 2 min 0 W/m 38,6 km/h (5 Bft) 95,74 %
03.03.2019 06:18 9,7 C 8,3 C 7,2 C 87 % 1006,3 hPa 0,0 l/m 0 min 2 min 0 W/m 16,1 km/h (3 Bft) 95,74 %
03.03.2019 06:20 9,6 C 8,3 C 7,2 C 87 % 1006,2 hPa 0,0 l/m 0 min 2 min 0 W/m 35,4 km/h (5 Bft) 91,49 %
03.03.2019 06:22 9,6 C 8,3 C 7,2 C 87 % 1006,2 hPa 0,0 l/m 0 min 2 min 0 W/m 22,5 km/h (4 Bft) 97,87 %
03.03.2019 06:24 9,7 C 8,3 C 7,2 C 87 % 1006,3 hPa 0,0 l/m 0 min 2 min 0 W/m 35,4 km/h (5 Bft) 97,87 %
03.03.2019 06:26 9,7 C 8,3 C 7,2 C 87 % 1006,2 hPa 0,0 l/m 0 min 2 min 0 W/m 32,2 km/h (5 Bft) 97,83 %
03.03.2019 06:28 9,7 C 8,3 C 7,2 C 87 % 1006,1 hPa 0,0 l/m 0 min 2 min 0 W/m 29,0 km/h (5 Bft) 93,62 %
03.03.2019 06:30 9,7 C 8,9 C 7,8 C 87 % 1006,0 hPa 0,0 l/m 0 min 2 min 0 W/m 25,7 km/h (4 Bft) 95,74 %
03.03.2019 06:32 9,7 C 8,9 C 7,8 C 87 % 1006,0 hPa 0,0 l/m 0 min 2 min 0 W/m 25,7 km/h (4 Bft) 95,74 %
03.03.2019 06:34 9,7 C 8,9 C 7,8 C 87 % 1006,0 hPa 0,0 l/m 0 min 2 min 0 W/m 25,7 km/h (4 Bft) 95,74 %
03.03.2019 06:36 9,7 C 8,9 C 7,8 C 87 % 1006,0 hPa 0,0 l/m 0 min 2 min 0 W/m 32,2 km/h (5 Bft) 91,38 %
03.03.2019 06:38 9,7 C 8,9 C 7,8 C 87 % 1006,0 hPa 0,0 l/m 0 min 0 min 0 W/m 38,6 km/h (5 Bft) 95,74 %
03.03.2019 06:40 9,7 C 8,9 C 8,3 C 87 % 1006,0 hPa 0,0 l/m 0 min 0 min 0 W/m 29,0 km/h (5 Bft) 94,29 %
03.03.2019 06:42 9,7 C 8,9 C 8,3 C 87 % 1006,0 hPa 0,0 l/m 0 min 0 min 0 W/m 16,1 km/h (3 Bft) 93,62 %
03.03.2019 06:44 9,7 C 8,9 C 8,3 C 87 % 1006,0 hPa 0,0 l/m 0 min 0 min 0 W/m 25,7 km/h (4 Bft) 95,74 %
03.03.2019 06:46 9,7 C 8,9 C 8,3 C 87 % 1006,0 hPa 0,0 l/m 0 min 0 min 0 W/m 22,5 km/h (4 Bft) 97,87 %
03.03.2019 06:48 9,7 C 8,9 C 8,3 C 87 % 1006,0 hPa 0,0 l/m 0 min 2 min 0 W/m 32,2 km/h (5 Bft) 97,87 %
03.03.2019 06:50 9,7 C 8,9 C 8,3 C 86 % 1006,0 hPa 0,0 l/m 0 min 0 min 0 W/m 25,7 km/h (4 Bft) 97,83 %
03.03.2019 06:52 9,8 C 9,4 C 8,3 C 86 % 1006,0 hPa 0,0 l/m 0 min 0 min 0 W/m 29,0 km/h (5 Bft) 97,87 %
03.03.2019 06:54 9,8 C 9,4 C 8,3 C 86 % 1005,9 hPa 0,0 l/m 0 min 0 min 0 W/m 25,7 km/h (4 Bft) 95,74 %
03.03.2019 06:56 9,8 C 9,4 C 8,3 C 86 % 1005,9 hPa 0,0 l/m 0 min 0 min 0 W/m 25,7 km/h (4 Bft) 95,74 %
03.03.2019 06:58 9,8 C 9,4 C 8,3 C 86 % 1005,8 hPa 0,0 l/m 0 min 0 min 0 W/m 32,2 km/h (5 Bft) 97,87 %
03.03.2019 07:00 9,8 C 9,4 C 8,3 C 86 % 1005,8 hPa 0,0 l/m 0 min 0 min 0 W/m 29,0 km/h (5 Bft) 97,87 %
03.03.2019 07:02 9,8 C 9,4 C 8,3 C 86 % 1005,9 hPa 0,0 l/m 0 min 0 min 0 W/m 29,0 km/h (5 Bft) 95,65 %
03.03.2019 07:04 9,9 C 9,4 C 8,3 C 86 % 1005,8 hPa 0,0 l/m 0 min 0 min 0 W/m 45,1 km/h (6 Bft) 95,74 %
03.03.2019 07:06 9,9 C 8,9 C 8,3 C 86 % 1005,9 hPa 0,0 l/m 0 min 2 min 0 W/m 29,0 km/h (5 Bft) 96,61 %
03.03.2019 07:08 9,9 C 8,3 C 8,3 C 86 % 1005,8 hPa 0,0 l/m 0 min 2 min 0 W/m 35,4 km/h (5 Bft) 100,00 %
03.03.2019 07:10 9,9 C 8,3 C 8,3 C 86 % 1005,8 hPa 0,0 l/m 0 min 2 min 0 W/m 25,7 km/h (4 Bft) 97,87 %
03.03.2019 07:12 9,9 C 8,3 C 8,3 C 87 % 1005,8 hPa 0,0 l/m 0 min 2 min 0 W/m 25,7 km/h (4 Bft) 89,36 %
03.03.2019 07:14 9,9 C 8,3 C 8,3 C 87 % 1005,8 hPa 0,0 l/m 0 min 2 min 0 W/m 38,6 km/h (5 Bft) 97,83 %
03.03.2019 07:16 9,9 C 8,3 C 8,3 C 87 % 1005,8 hPa 0,0 l/m 0 min 2 min 0 W/m 35,4 km/h (5 Bft) 97,87 %
03.03.2019 07:18 9,8 C 8,3 C 7,8 C 87 % 1005,9 hPa 0,0 l/m 0 min 2 min 0 W/m 32,2 km/h (5 Bft) 100,00 %
03.03.2019 07:20 9,8 C 8,3 C 7,8 C 87 % 1005,9 hPa 0,0 l/m 0 min 2 min 0 W/m 22,5 km/h (4 Bft) 100,00 %
03.03.2019 07:22 9,8 C 8,3 C 8,3 C 87 % 1005,8 hPa 0,0 l/m 0 min 2 min 0 W/m 35,4 km/h (5 Bft) 100,00 %
03.03.2019 07:24 9,8 C 8,9 C 8,3 C 87 % 1006,0 hPa 0,0 l/m 0 min 2 min 0 W/m 38,6 km/h (5 Bft) 100,00 %
03.03.2019 07:26 9,8 C 8,9 C 8,3 C 87 % 1005,9 hPa 0,0 l/m 0 min 2 min 0 W/m 19,3 km/h (3 Bft) 97,87 %
03.03.2019 07:28 9,8 C 9,4 C 8,9 C 87 % 1005,9 hPa 0,0 l/m 0 min 2 min 0 W/m 32,2 km/h (5 Bft) 100,00 %
03.03.2019 07:30 9,8 C 9,4 C 8,9 C 87 % 1005,9 hPa 0,0 l/m 0 min 2 min 0 W/m 32,2 km/h (5 Bft) 100,00 %
03.03.2019 07:32 9,8 C 9,4 C 8,9 C 87 % 1005,9 hPa 0,0 l/m 0 min 2 min 0 W/m 25,7 km/h (4 Bft) 100,00 %
03.03.2019 07:34 9,9 C 9,4 C 8,9 C 87 % 1005,9 hPa 0,0 l/m 0 min 2 min 0 W/m 32,2 km/h (5 Bft) 100,00 %
03.03.2019 07:36 9,9 C 9,4 C 8,9 C 87 % 1005,9 hPa 0,0 l/m 0 min 2 min 0 W/m 25,7 km/h (4 Bft) 100,00 %
03.03.2019 07:38 9,9 C 9,4 C 8,9 C 87 % 1005,9 hPa 0,0 l/m 0 min 2 min 1 W/m 29,0 km/h (5 Bft) 100,00 %
03.03.2019 07:40 9,9 C 9,4 C 8,9 C 87 % 1005,9 hPa 0,0 l/m 0 min 0 min 5 W/m 45,1 km/h (6 Bft) 100,00 %
03.03.2019 07:42 9,9 C 9,4 C 8,9 C 87 % 1005,9 hPa 0,0 l/m 0 min 0 min 5 W/m 35,4 km/h (5 Bft) 100,00 %
03.03.2019 07:44 9,9 C 9,4 C 8,9 C 87 % 1005,9 hPa 0,0 l/m 0 min 0 min 5 W/m 41,8 km/h (6 Bft) 100,00 %
03.03.2019 07:46 9,9 C 9,4 C 8,9 C 87 % 1005,9 hPa 0,0 l/m 0 min 0 min 5 W/m 25,7 km/h (4 Bft) 100,00 %
03.03.2019 07:48 9,9 C 9,4 C 8,9 C 87 % 1005,8 hPa 0,0 l/m 0 min 0 min 5 W/m 32,2 km/h (5 Bft) 100,00 %
03.03.2019 07:50 9,9 C 9,4 C 8,9 C 87 % 1005,8 hPa 0,0 l/m 0 min 0 min 7 W/m 25,7 km/h (4 Bft) 100,00 %
03.03.2019 07:52 10,0 C 9,4 C 8,9 C 87 % 1005,8 hPa 0,0 l/m 0 min 0 min 7 W/m 25,7 km/h (4 Bft) 97,87 %
03.03.2019 07:54 10,0 C 9,4 C 8,9 C 87 % 1005,8 hPa 0,0 l/m 0 min 0 min 5 W/m 22,5 km/h (4 Bft) 100,00 %
03.03.2019 07:56 10,0 C 9,4 C 8,9 C 87 % 1005,8 hPa 0,0 l/m 0 min 0 min 7 W/m 29,0 km/h (5 Bft) 95,74 %
03.03.2019 07:58 10,0 C 9,4 C 8,9 C 87 % 1005,8 hPa 0,0 l/m 0 min 0 min 7 W/m 32,2 km/h (5 Bft) 100,00 %
03.03.2019 08:00 9,9 C 9,4 C 8,9 C 87 % 1005,9 hPa 0,0 l/m 0 min 0 min 7 W/m 25,7 km/h (4 Bft) 97,83 %
03.03.2019 08:02 10,0 C 9,4 C 8,9 C 87 % 1005,8 hPa 0,0 l/m 0 min 0 min 9 W/m 19,3 km/h (3 Bft) 95,74 %
03.03.2019 08:04 10,0 C 9,4 C 8,9 C 87 % 1005,9 hPa 0,0 l/m 0 min 0 min 8 W/m 19,3 km/h (3 Bft) 97,87 %
03.03.2019 08:06 10,0 C 9,4 C 8,9 C 87 % 1006,0 hPa 0,0 l/m 0 min 0 min 9 W/m 32,2 km/h (5 Bft) 98,31 %
03.03.2019 08:08 10,0 C 9,4 C 8,9 C 87 % 1006,0 hPa 0,0 l/m 0 min 0 min 9 W/m 29,0 km/h (5 Bft) 97,56 %
03.03.2019 08:10 10,0 C 9,4 C 8,9 C 87 % 1005,9 hPa 0,0 l/m 0 min 0 min 12 W/m 22,5 km/h (4 Bft) 95,12 %
03.03.2019 08:12 10,0 C 9,4 C 8,9 C 87 % 1006,0 hPa 0,0 l/m 0 min 0 min 14 W/m 29,0 km/h (5 Bft) 97,83 %
03.03.2019 08:14 10,0 C 9,4 C 8,9 C 87 % 1006,0 hPa 0,0 l/m 0 min 0 min 16 W/m 32,2 km/h (5 Bft) 95,74 %
03.03.2019 08:16 10,0 C 9,4 C 8,9 C 87 % 1005,9 hPa 0,0 l/m 0 min 0 min 16 W/m 35,4 km/h (5 Bft) 97,87 %
03.03.2019 08:18 10,0 C 9,4 C 8,9 C 87 % 1005,9 hPa 0,0 l/m 0 min 0 min 20 W/m 29,0 km/h (5 Bft) 97,87 %
03.03.2019 08:20 10,0 C 9,4 C 8,9 C 87 % 1005,9 hPa 0,0 l/m 0 min 0 min 23 W/m 29,0 km/h (5 Bft) 95,74 %
03.03.2019 08:22 10,0 C 9,4 C 8,9 C 88 % 1005,9 hPa 0,0 l/m 0 min 0 min 19 W/m 38,6 km/h (5 Bft) 97,87 %
03.03.2019 08:24 10,0 C 9,4 C 8,9 C 88 % 1005,8 hPa 0,0 l/m 0 min 0 min 18 W/m 35,4 km/h (5 Bft) 97,83 %
03.03.2019 08:26 10,0 C 9,4 C 8,9 C 88 % 1005,9 hPa 0,0 l/m 0 min 0 min 21 W/m 29,0 km/h (5 Bft) 97,87 %
03.03.2019 08:28 10,0 C 9,4 C 8,9 C 88 % 1005,9 hPa 0,0 l/m 0 min 0 min 25 W/m 25,7 km/h (4 Bft) 97,87 %
03.03.2019 08:30 10,0 C 9,4 C 8,9 C 88 % 1005,9 hPa 0,0 l/m 0 min 0 min 25 W/m 45,1 km/h (6 Bft) 95,74 %
03.03.2019 08:32 10,1 C 9,4 C 8,9 C 88 % 1005,9 hPa 0,0 l/m 0 min 0 min 27 W/m 51,5 km/h (7 Bft) 95,74 %
03.03.2019 08:34 10,1 C 9,4 C 8,9 C 88 % 1006,0 hPa 0,0 l/m 0 min 0 min 26 W/m 32,2 km/h (5 Bft) 97,83 %
03.03.2019 08:36 10,1 C 9,4 C 8,9 C 88 % 1005,9 hPa 0,0 l/m 0 min 0 min 32 W/m 38,6 km/h (5 Bft) 98,31 %
03.03.2019 08:38 10,1 C 9,4 C 8,9 C 88 % 1005,9 hPa 0,0 l/m 0 min 0 min 37 W/m 38,6 km/h (5 Bft) 97,56 %
03.03.2019 08:40 10,1 C 10,0 C 8,9 C 88 % 1005,9 hPa 0,0 l/m 0 min 0 min 39 W/m 45,1 km/h (6 Bft) 97,56 %
03.03.2019 08:42 10,1 C 10,0 C 9,4 C 88 % 1005,9 hPa 0,0 l/m 0 min 0 min 36 W/m 35,4 km/h (5 Bft) 97,87 %
03.03.2019 08:44 10,2 C 10,0 C 9,4 C 88 % 1005,9 hPa 0,0 l/m 0 min 0 min 35 W/m 29,0 km/h (5 Bft) 97,87 %
03.03.2019 08:46 10,2 C 10,0 C 9,4 C 88 % 1005,9 hPa 0,0 l/m 0 min 0 min 31 W/m 29,0 km/h (5 Bft) 100,00 %
03.03.2019 08:48 10,2 C 10,0 C 9,4 C 88 % 1006,0 hPa 0,0 l/m 0 min 0 min 28 W/m 29,0 km/h (5 Bft) 100,00 %
03.03.2019 08:50 10,2 C 10,0 C 9,4 C 88 % 1006,0 hPa 0,0 l/m 0 min 0 min 28 W/m 38,6 km/h (5 Bft) 100,00 %
03.03.2019 08:52 10,2 C 10,0 C 9,4 C 88 % 1005,9 hPa 0,0 l/m 0 min 0 min 26 W/m 32,2 km/h (5 Bft) 97,87 %
03.03.2019 08:54 10,2 C 10,0 C 9,4 C 88 % 1006,0 hPa 0,0 l/m 0 min 0 min 24 W/m 29,0 km/h (5 Bft) 97,87 %
03.03.2019 08:56 10,2 C 10,0 C 9,4 C 88 % 1006,0 hPa 0,0 l/m 0 min 0 min 22 W/m 32,2 km/h (5 Bft) 100,00 %
03.03.2019 08:58 10,2 C 10,0 C 9,4 C 88 % 1006,0 hPa 0,0 l/m 0 min 0 min 21 W/m 25,7 km/h (4 Bft) 100,00 %
03.03.2019 09:00 10,2 C 10,0 C 9,4 C 88 % 1006,0 hPa 0,0 l/m 0 min 2 min 22 W/m 41,8 km/h (6 Bft) 100,00 %
03.03.2019 09:02 10,2 C 10,0 C 9,4 C 88 % 1006,1 hPa 0,0 l/m 0 min 0 min 20 W/m 41,8 km/h (6 Bft) 98,15 %
03.03.2019 09:04 10,3 C 9,4 C 8,9 C 88 % 1006,0 hPa 0,0 l/m 0 min 0 min 22 W/m 45,1 km/h (6 Bft) 100,00 %
03.03.2019 09:06 10,3 C 9,4 C 8,9 C 88 % 1005,9 hPa 0,0 l/m 0 min 0 min 28 W/m 35,4 km/h (5 Bft) 98,28 %
03.03.2019 09:08 10,3 C 9,4 C 8,9 C 88 % 1006,0 hPa 0,0 l/m 0 min 0 min 26 W/m 22,5 km/h (4 Bft) 100,00 %
03.03.2019 09:10 10,3 C 9,4 C 8,9 C 88 % 1006,1 hPa 0,0 l/m 0 min 0 min 26 W/m 25,7 km/h (4 Bft) 93,62 %
03.03.2019 09:12 10,3 C 9,4 C 8,9 C 88 % 1006,0 hPa 0,0 l/m 0 min 0 min 25 W/m 25,7 km/h (4 Bft) 97,87 %
03.03.2019 09:14 10,3 C 8,9 C 8,3 C 88 % 1006,1 hPa 0,0 l/m 0 min 2 min 25 W/m 29,0 km/h (5 Bft) 93,62 %
03.03.2019 09:16 10,3 C 8,3 C 7,8 C 89 % 1006,1 hPa 0,2 l/m 0 min 2 min 27 W/m 48,3 km/h (6 Bft) 95,65 %
03.03.2019 09:18 10,2 C 8,3 C 7,8 C 89 % 1006,0 hPa 0,0 l/m 0 min 2 min 31 W/m 32,2 km/h (5 Bft) 97,87 %
03.03.2019 09:20 10,2 C 8,3 C 7,8 C 89 % 1006,0 hPa 0,0 l/m 0 min 2 min 34 W/m 29,0 km/h (5 Bft) 97,87 %
03.03.2019 09:22 10,2 C 8,3 C 7,8 C 90 % 1006,0 hPa 0,0 l/m 0 min 2 min 37 W/m 38,6 km/h (5 Bft) 95,74 %
03.03.2019 09:24 10,1 C 8,3 C 7,8 C 90 % 1006,1 hPa 0,0 l/m 0 min 2 min 44 W/m 29,0 km/h (5 Bft) 97,87 %
03.03.2019 09:26 10,1 C 8,3 C 7,8 C 90 % 1006,0 hPa 0,0 l/m 0 min 2 min 48 W/m 32,2 km/h (5 Bft) 97,87 %
03.03.2019 09:28 10,0 C 8,3 C 7,8 C 90 % 1006,0 hPa 0,0 l/m 0 min 2 min 38 W/m 35,4 km/h (5 Bft) 97,87 %
03.03.2019 09:30 9,9 C 8,3 C 7,8 C 91 % 1006,0 hPa 0,0 l/m 0 min 2 min 35 W/m 32,2 km/h (5 Bft) 97,83 %
03.03.2019 09:32 9,9 C 8,3 C 7,8 C 91 % 1006,0 hPa 0,0 l/m 0 min 2 min 32 W/m 25,7 km/h (4 Bft) 95,74 %
03.03.2019 09:34 9,9 C 8,3 C 7,8 C 91 % 1006,0 hPa 0,0 l/m 0 min 2 min 32 W/m 25,7 km/h (4 Bft) 93,62 %
03.03.2019 09:36 9,9 C 8,3 C 7,8 C 91 % 1005,9 hPa 0,0 l/m 0 min 2 min 30 W/m 29,0 km/h (5 Bft) 95,74 %
03.03.2019 09:38 9,8 C 8,3 C 7,8 C 92 % 1006,0 hPa 0,0 l/m 0 min 2 min 32 W/m 35,4 km/h (5 Bft) 95,74 %
03.03.2019 09:40 9,8 C 8,3 C 7,8 C 92 % 1006,0 hPa 0,0 l/m 0 min 2 min 35 W/m 25,7 km/h (4 Bft) 95,65 %
03.03.2019 09:42 9,8 C 8,3 C 7,8 C 92 % 1005,9 hPa 0,2 l/m 0 min 2 min 34 W/m 32,2 km/h (5 Bft) 95,74 %
03.03.2019 09:44 9,8 C 8,3 C 7,8 C 92 % 1006,0 hPa 0,0 l/m 0 min 2 min 31 W/m 25,7 km/h (4 Bft) 95,74 %
03.03.2019 09:46 9,7 C 8,3 C 7,8 C 92 % 1006,0 hPa 0,0 l/m 0 min 2 min 31 W/m 22,5 km/h (4 Bft) 97,87 %
03.03.2019 09:48 9,7 C 8,3 C 7,8 C 92 % 1006,0 hPa 0,0 l/m 0 min 2 min 33 W/m 35,4 km/h (5 Bft) 95,74 %
03.03.2019 09:50 9,7 C 8,3 C 7,8 C 93 % 1005,9 hPa 0,0 l/m 0 min 2 min 39 W/m 41,8 km/h (6 Bft) 95,74 %
03.03.2019 09:52 9,7 C 8,3 C 7,8 C 93 % 1005,9 hPa 0,0 l/m 0 min 2 min 36 W/m 29,0 km/h (5 Bft) 95,65 %
03.03.2019 09:54 9,7 C 8,3 C 7,8 C 93 % 1005,9 hPa 0,0 l/m 0 min 2 min 35 W/m 29,0 km/h (5 Bft) 94,44 %
03.03.2019 09:56 9,7 C 8,3 C 7,8 C 93 % 1005,9 hPa 0,0 l/m 0 min 2 min 34 W/m 29,0 km/h (5 Bft) 93,44 %
03.03.2019 09:58 9,7 C 8,3 C 7,8 C 93 % 1005,9 hPa 0,0 l/m 0 min 2 min 31 W/m 51,5 km/h (7 Bft) 95,74 %
03.03.2019 10:00 9,7 C 8,3 C 7,8 C 93 % 1005,9 hPa 0,0 l/m 0 min 2 min 38 W/m 29,0 km/h (5 Bft) 93,62 %
03.03.2019 10:02 9,7 C 8,3 C 7,8 C 93 % 1005,9 hPa 0,0 l/m 0 min 2 min 35 W/m 29,0 km/h (5 Bft) 93,48 %
03.03.2019 10:04 9,7 C 8,3 C 8,3 C 93 % 1005,9 hPa 0,0 l/m 0 min 2 min 32 W/m 32,2 km/h (5 Bft) 95,74 %
03.03.2019 10:06 9,7 C 8,3 C 8,3 C 93 % 1005,9 hPa 0,0 l/m 0 min 2 min 33 W/m 22,5 km/h (4 Bft) 95,74 %
03.03.2019 10:08 9,7 C 8,3 C 8,3 C 93 % 1005,9 hPa 0,0 l/m 0 min 2 min 37 W/m 32,2 km/h (5 Bft) 95,83 %
03.03.2019 10:10 9,7 C 8,9 C 8,3 C 93 % 1005,8 hPa 0,0 l/m 0 min 2 min 38 W/m 38,6 km/h (5 Bft) 97,87 %
03.03.2019 10:12 9,8 C 8,9 C 8,3 C 93 % 1005,9 hPa 0,0 l/m 0 min 2 min 40 W/m 45,1 km/h (6 Bft) 95,74 %
03.03.2019 10:14 9,8 C 8,3 C 8,3 C 93 % 1005,9 hPa 0,0 l/m 0 min 2 min 42 W/m 29,0 km/h (5 Bft) 97,83 %
03.03.2019 10:16 9,8 C 8,3 C 8,3 C 93 % 1005,8 hPa 0,0 l/m 0 min 2 min 51 W/m 32,2 km/h (5 Bft) 95,74 %
03.03.2019 10:18 9,9 C 8,9 C 8,3 C 93 % 1005,8 hPa 0,0 l/m 0 min 2 min 45 W/m 25,7 km/h (4 Bft) 93,62 %
03.03.2019 10:20 9,9 C 8,9 C 8,3 C 93 % 1005,8 hPa 0,0 l/m 0 min 2 min 42 W/m 38,6 km/h (5 Bft) 97,87 %
03.03.2019 10:22 9,9 C 8,9 C 8,3 C 93 % 1005,8 hPa 0,0 l/m 0 min 2 min 42 W/m 32,2 km/h (5 Bft) 95,74 %
03.03.2019 10:24 9,9 C 8,3 C 8,3 C 93 % 1005,9 hPa 0,0 l/m 0 min 2 min 40 W/m 35,4 km/h (5 Bft) 100,00 %
03.03.2019 10:26 9,9 C 8,3 C 8,3 C 93 % 1005,9 hPa 0,0 l/m 0 min 2 min 41 W/m 35,4 km/h (5 Bft) 100,00 %
03.03.2019 10:28 9,9 C 8,3 C 8,3 C 93 % 1005,7 hPa 0,0 l/m 0 min 2 min 47 W/m 32,2 km/h (5 Bft) 100,00 %
03.03.2019 10:30 9,9 C 8,3 C 8,3 C 93 % 1005,8 hPa 0,0 l/m 0 min 2 min 49 W/m 35,4 km/h (5 Bft) 100,00 %
03.03.2019 10:32 9,9 C 8,3 C 8,3 C 93 % 1005,7 hPa 0,0 l/m 0 min 2 min 49 W/m 29,0 km/h (5 Bft) 100,00 %
03.03.2019 10:34 10,0 C 8,3 C 8,3 C 93 % 1005,7 hPa 0,0 l/m 0 min 2 min 51 W/m 29,0 km/h (5 Bft) 97,87 %
03.03.2019 10:36 10,0 C 8,3 C 8,3 C 93 % 1005,8 hPa 0,2 l/m 0 min 2 min 50 W/m 41,8 km/h (6 Bft) 97,87 %
03.03.2019 10:38 10,0 C 8,3 C 8,3 C 93 % 1005,8 hPa 0,0 l/m 0 min 2 min 45 W/m 38,6 km/h (5 Bft) 97,83 %
03.03.2019 10:40 10,0 C 8,3 C 8,3 C 93 % 1005,7 hPa 0,0 l/m 0 min 2 min 43 W/m 32,2 km/h (5 Bft) 97,87 %
03.03.2019 10:42 10,0 C 8,3 C 8,3 C 93 % 1005,7 hPa 0,0 l/m 0 min 2 min 46 W/m 32,2 km/h (5 Bft) 95,74 %
03.03.2019 10:44 10,0 C 8,3 C 8,3 C 93 % 1005,7 hPa 0,0 l/m 0 min 2 min 49 W/m 29,0 km/h (5 Bft) 97,87 %
03.03.2019 10:46 10,0 C 8,3 C 8,3 C 93 % 1005,7 hPa 0,0 l/m 0 min 2 min 53 W/m 25,7 km/h (4 Bft) 93,62 %
03.03.2019 10:48 10,0 C 8,3 C 8,3 C 93 % 1005,7 hPa 0,0 l/m 0 min 2 min 57 W/m 25,7 km/h (4 Bft) 95,65 %
03.03.2019 10:50 10,0 C 8,9 C 8,3 C 93 % 1005,7 hPa 0,0 l/m 0 min 2 min 62 W/m 22,5 km/h (4 Bft) 97,87 %
03.03.2019 10:52 10,0 C 8,9 C 8,3 C 93 % 1005,7 hPa 0,0 l/m 0 min 2 min 66 W/m 25,7 km/h (4 Bft) 97,87 %
03.03.2019 10:54 10,0 C 8,9 C 8,3 C 94 % 1005,7 hPa 0,0 l/m 0 min 2 min 71 W/m 45,1 km/h (6 Bft) 97,87 %
03.03.2019 10:56 10,0 C 8,9 C 8,3 C 94 % 1005,7 hPa 0,0 l/m 0 min 2 min 69 W/m 35,4 km/h (5 Bft) 97,87 %
03.03.2019 10:58 10,1 C 8,9 C 8,3 C 94 % 1005,7 hPa 0,0 l/m 0 min 2 min 66 W/m 32,2 km/h (5 Bft) 97,87 %
03.03.2019 11:00 10,1 C 8,9 C 8,3 C 94 % 1005,8 hPa 0,0 l/m 0 min 2 min 66 W/m 38,6 km/h (5 Bft) 97,83 %
03.03.2019 11:02 10,1 C 8,9 C 8,3 C 94 % 1005,8 hPa 0,0 l/m 0 min 2 min 61 W/m 25,7 km/h (4 Bft) 97,92 %
03.03.2019 11:04 10,1 C 8,9 C 8,3 C 94 % 1005,7 hPa 0,0 l/m 0 min 2 min 70 W/m 22,5 km/h (4 Bft) 93,62 %
03.03.2019 11:06 10,1 C 8,9 C 8,3 C 94 % 1005,7 hPa 0,0 l/m 0 min 2 min 68 W/m 25,7 km/h (4 Bft) 97,87 %
03.03.2019 11:08 10,1 C 8,9 C 8,3 C 94 % 1005,7 hPa 0,0 l/m 0 min 2 min 67 W/m 25,7 km/h (4 Bft) 97,87 %
03.03.2019 11:10 10,1 C 8,9 C 8,3 C 94 % 1005,7 hPa 0,2 l/m 0 min 2 min 66 W/m 32,2 km/h (5 Bft) 97,87 %
03.03.2019 11:12 10,1 C 8,9 C 8,3 C 94 % 1005,6 hPa 0,0 l/m 0 min 2 min 57 W/m 41,8 km/h (6 Bft) 97,87 %
03.03.2019 11:14 10,1 C 8,9 C 8,3 C 94 % 1005,7 hPa 0,0 l/m 0 min 2 min 62 W/m 45,1 km/h (6 Bft) 97,83 %
03.03.2019 11:16 10,1 C 8,9 C 8,3 C 94 % 1005,7 hPa 0,0 l/m 0 min 2 min 68 W/m 41,8 km/h (6 Bft) 97,87 %
03.03.2019 11:18 10,2 C 8,9 C 8,3 C 94 % 1005,8 hPa 0,0 l/m 0 min 2 min 64 W/m 22,5 km/h (4 Bft) 100,00 %
03.03.2019 11:20 10,2 C 8,9 C 8,3 C 94 % 1005,8 hPa 0,0 l/m 0 min 2 min 62 W/m 25,7 km/h (4 Bft) 100,00 %
03.03.2019 11:22 10,2 C 8,9 C 8,3 C 94 % 1005,7 hPa 0,0 l/m 0 min 2 min 63 W/m 45,1 km/h (6 Bft) 100,00 %
03.03.2019 11:24 10,2 C 8,9 C 8,3 C 94 % 1005,8 hPa 0,0 l/m 0 min 2 min 63 W/m 41,8 km/h (6 Bft) 97,83 %
03.03.2019 11:26 10,2 C 8,9 C 8,3 C 94 % 1005,7 hPa 0,0 l/m 0 min 2 min 52 W/m 25,7 km/h (4 Bft) 100,00 %
03.03.2019 11:28 10,2 C 8,9 C 8,3 C 94 % 1005,7 hPa 0,0 l/m 0 min 2 min 62 W/m 25,7 km/h (4 Bft) 100,00 %
03.03.2019 11:30 10,2 C 8,9 C 8,3 C 94 % 1005,7 hPa 0,0 l/m 0 min 2 min 73 W/m 29,0 km/h (5 Bft) 100,00 %
03.03.2019 11:32 10,2 C 8,9 C 8,3 C 94 % 1005,7 hPa 0,0 l/m 0 min 2 min 84 W/m 41,8 km/h (6 Bft) 100,00 %
03.03.2019 11:34 10,3 C 8,9 C 8,3 C 94 % 1005,7 hPa 0,0 l/m 0 min 2 min 81 W/m 29,0 km/h (5 Bft) 100,00 %
03.03.2019 11:36 10,3 C 8,9 C 8,9 C 94 % 1005,8 hPa 0,0 l/m 0 min 2 min 90 W/m 35,4 km/h (5 Bft) 100,00 %
03.03.2019 11:38 10,3 C 8,9 C 8,9 C 94 % 1005,6 hPa 0,0 l/m 0 min 2 min 94 W/m 32,2 km/h (5 Bft) 100,00 %
03.03.2019 11:40 10,3 C 8,9 C 8,9 C 94 % 1005,6 hPa 0,0 l/m 0 min 2 min 115 W/m 25,7 km/h (4 Bft) 100,00 %
03.03.2019 11:42 10,3 C 8,9 C 8,9 C 94 % 1005,6 hPa 0,0 l/m 0 min 2 min 105 W/m 29,0 km/h (5 Bft) 100,00 %
03.03.2019 11:44 10,4 C 8,9 C 8,9 C 94 % 1005,6 hPa 0,0 l/m 0 min 2 min 114 W/m 41,8 km/h (6 Bft) 97,87 %
03.03.2019 11:46 10,4 C 9,4 C 8,9 C 94 % 1005,6 hPa 0,2 l/m 0 min 2 min 107 W/m 25,7 km/h (4 Bft) 100,00 %
03.03.2019 11:48 10,4 C 9,4 C 8,9 C 94 % 1005,6 hPa 0,0 l/m 0 min 2 min 116 W/m 29,0 km/h (5 Bft) 100,00 %
03.03.2019 11:50 10,4 C 9,4 C 8,9 C 94 % 1005,6 hPa 0,0 l/m 0 min 2 min 108 W/m 22,5 km/h (4 Bft) 100,00 %
03.03.2019 11:52 10,4 C 9,4 C 8,9 C 94 % 1005,6 hPa 0,0 l/m 0 min 2 min 101 W/m 22,5 km/h (4 Bft) 100,00 %
03.03.2019 11:54 10,4 C 9,4 C 8,9 C 94 % 1005,5 hPa 0,0 l/m 0 min 2 min 92 W/m 22,5 km/h (4 Bft) 100,00 %
03.03.2019 11:56 10,4 C 9,4 C 8,9 C 94 % 1005,5 hPa 0,0 l/m 0 min 2 min 81 W/m 48,3 km/h (6 Bft) 100,00 %
03.03.2019 11:58 10,4 C 9,4 C 8,9 C 94 % 1005,5 hPa 0,0 l/m 0 min 2 min 82 W/m 38,6 km/h (5 Bft) 100,00 %
03.03.2019 12:00 10,4 C 9,4 C 8,9 C 94 % 1005,5 hPa 0,0 l/m 0 min 2 min 72 W/m 22,5 km/h (4 Bft) 100,00 %
03.03.2019 12:02 10,4 C 9,4 C 8,9 C 94 % 1005,5 hPa 0,0 l/m 0 min 2 min 60 W/m 25,7 km/h (4 Bft) 100,00 %
03.03.2019 12:04 10,4 C 9,4 C 8,9 C 94 % 1005,5 hPa 0,0 l/m 0 min 2 min 62 W/m 25,7 km/h (4 Bft) 97,87 %
03.03.2019 12:07 10,5 C 9,4 C 8,9 C 94 % 1005,5 hPa 0,0 l/m 0 min 3 min 80 W/m 32,2 km/h (5 Bft) 98,77 %
03.03.2019 12:08 10,5 C 9,4 C 8,9 C 94 % 1005,5 hPa 0,0 l/m 0 min 1 min 68 W/m 35,4 km/h (5 Bft) 100,00 %
03.03.2019 12:10 10,5 C 9,4 C 8,9 C 94 % 1005,5 hPa 0,0 l/m 0 min 2 min 66 W/m 32,2 km/h (5 Bft) 100,00 %
03.03.2019 12:12 10,5 C 9,4 C 8,9 C 94 % 1005,4 hPa 0,0 l/m 0 min 2 min 75 W/m 38,6 km/h (5 Bft) 97,87 %
03.03.2019 12:15 10,5 C 9,4 C 8,9 C 94 % 1005,4 hPa 0,0 l/m 0 min 3 min 86 W/m 25,7 km/h (4 Bft) 100,00 %
03.03.2019 12:16 10,5 C 9,4 C 8,9 C 94 % 1005,4 hPa 0,0 l/m 0 min 1 min 102 W/m 19,3 km/h (3 Bft) 100,00 %
03.03.2019 12:18 10,5 C 9,4 C 8,9 C 94 % 1005,4 hPa 0,0 l/m 0 min 2 min 103 W/m 54,7 km/h (7 Bft) 100,00 %
03.03.2019 12:20 10,6 C 9,4 C 8,9 C 94 % 1005,4 hPa 0,0 l/m 0 min 2 min 112 W/m 29,0 km/h (5 Bft) 100,00 %
03.03.2019 12:22 10,6 C 9,4 C 8,9 C 94 % 1005,4 hPa 0,0 l/m 0 min 2 min 116 W/m 35,4 km/h (5 Bft) 95,74 %
03.03.2019 12:24 10,6 C 9,4 C 9,4 C 94 % 1005,3 hPa 0,0 l/m 0 min 2 min 137 W/m 38,6 km/h (5 Bft) 97,87 %
03.03.2019 12:26 10,6 C 10,0 C 9,4 C 94 % 1005,4 hPa 0,0 l/m 0 min 2 min 128 W/m 22,5 km/h (4 Bft) 97,87 %
03.03.2019 12:28 10,7 C 10,0 C 9,4 C 93 % 1005,3 hPa 0,0 l/m 0 min 2 min 130 W/m 25,7 km/h (4 Bft) 95,65 %
03.03.2019 12:30 10,7 C 10,0 C 9,4 C 93 % 1005,2 hPa 0,0 l/m 0 min 2 min 154 W/m 22,5 km/h (4 Bft) 95,74 %
03.03.2019 12:32 10,7 C 10,0 C 9,4 C 93 % 1005,2 hPa 0,0 l/m 0 min 2 min 158 W/m 19,3 km/h (3 Bft) 97,87 %
03.03.2019 12:34 10,8 C 10,0 C 9,4 C 93 % 1005,3 hPa 0,0 l/m 0 min 2 min 134 W/m 25,7 km/h (4 Bft) 95,74 %
03.03.2019 12:36 10,8 C 10,0 C 9,4 C 93 % 1005,2 hPa 0,0 l/m 0 min 0 min 120 W/m 22,5 km/h (4 Bft) 93,22 %
03.03.2019 12:38 10,8 C 10,0 C 9,4 C 93 % 1005,2 hPa 0,0 l/m 0 min 0 min 123 W/m 29,0 km/h (5 Bft) 100,00 %
03.03.2019 12:40 10,8 C 10,0 C 9,4 C 93 % 1005,2 hPa 0,0 l/m 0 min 2 min 111 W/m 51,5 km/h (7 Bft) 95,65 %
03.03.2019 12:42 10,9 C 10,0 C 9,4 C 93 % 1005,2 hPa 0,0 l/m 0 min 0 min 101 W/m 35,4 km/h (5 Bft) 97,87 %
03.03.2019 12:44 10,9 C 10,0 C 9,4 C 93 % 1005,2 hPa 0,0 l/m 0 min 2 min 77 W/m 22,5 km/h (4 Bft) 97,87 %
03.03.2019 12:46 10,9 C 10,0 C 9,4 C 93 % 1005,2 hPa 0,0 l/m 0 min 2 min 77 W/m 35,4 km/h (5 Bft) 91,49 %
03.03.2019 12:48 10,9 C 10,0 C 9,4 C 93 % 1005,2 hPa 0,0 l/m 0 min 2 min 85 W/m 32,2 km/h (5 Bft) 95,74 %
03.03.2019 12:50 10,9 C 10,0 C 9,4 C 92 % 1005,2 hPa 0,0 l/m 0 min 2 min 79 W/m 25,7 km/h (4 Bft) 95,74 %
03.03.2019 12:52 11,0 C 10,0 C 9,4 C 92 % 1005,2 hPa 0,0 l/m 0 min 2 min 76 W/m 35,4 km/h (5 Bft) 95,65 %
03.03.2019 12:54 11,0 C 10,0 C 9,4 C 92 % 1005,2 hPa 0,0 l/m 0 min 0 min 79 W/m 32,2 km/h (5 Bft) 95,74 %
03.03.2019 12:56 11,0 C 10,0 C 9,4 C 92 % 1005,1 hPa 0,0 l/m 0 min 2 min 85 W/m 45,1 km/h (6 Bft) 95,74 %
03.03.2019 12:58 11,1 C 10,0 C 9,4 C 92 % 1005,1 hPa 0,0 l/m 0 min 2 min 98 W/m 38,6 km/h (5 Bft) 95,74 %
03.03.2019 13:00 11,1 C 10,0 C 9,4 C 92 % 1005,1 hPa 0,0 l/m 0 min 0 min 114 W/m 35,4 km/h (5 Bft) 95,74 %
03.03.2019 13:02 11,1 C 10,0 C 9,4 C 91 % 1005,1 hPa 0,0 l/m 0 min 0 min 111 W/m 32,2 km/h (5 Bft) 95,74 %
03.03.2019 13:04 11,1 C 10,0 C 9,4 C 91 % 1005,0 hPa 0,0 l/m 0 min 0 min 102 W/m 32,2 km/h (5 Bft) 95,65 %
03.03.2019 13:06 11,2 C 10,0 C 9,4 C 91 % 1005,1 hPa 0,0 l/m 0 min 0 min 86 W/m 29,0 km/h (5 Bft) 93,22 %
03.03.2019 13:08 11,2 C 10,0 C 9,4 C 91 % 1005,0 hPa 0,0 l/m 0 min 0 min 79 W/m 22,5 km/h (4 Bft) 94,29 %
03.03.2019 13:10 11,2 C 10,0 C 9,4 C 91 % 1005,0 hPa 0,0 l/m 0 min 0 min 90 W/m 35,4 km/h (5 Bft) 91,49 %
03.03.2019 13:12 11,2 C 10,0 C 9,4 C 91 % 1004,9 hPa 0,0 l/m 0 min 0 min 88 W/m 29,0 km/h (5 Bft) 93,62 %
03.03.2019 13:14 11,2 C 10,0 C 9,4 C 91 % 1005,0 hPa 0,0 l/m 0 min 0 min 78 W/m 35,4 km/h (5 Bft) 93,62 %
03.03.2019 13:16 11,3 C 10,0 C 9,4 C 91 % 1004,9 hPa 0,0 l/m 0 min 0 min 63 W/m 32,2 km/h (5 Bft) 93,48 %
03.03.2019 13:18 11,3 C 10,0 C 9,4 C 91 % 1004,9 hPa 0,0 l/m 0 min 0 min 68 W/m 22,5 km/h (4 Bft) 95,74 %
03.03.2019 13:20 11,3 C 10,0 C 9,4 C 90 % 1004,8 hPa 0,0 l/m 0 min 0 min 73 W/m 25,7 km/h (4 Bft) 95,74 %
03.03.2019 13:22 11,3 C 10,0 C 9,4 C 90 % 1004,8 hPa 0,0 l/m 0 min 2 min 67 W/m 22,5 km/h (4 Bft) 95,74 %
03.03.2019 13:24 11,3 C 10,0 C 9,4 C 90 % 1004,9 hPa 0,0 l/m 0 min 2 min 77 W/m 25,7 km/h (4 Bft) 91,49 %
03.03.2019 13:26 11,3 C 10,0 C 9,4 C 90 % 1004,9 hPa 0,0 l/m 0 min 2 min 63 W/m 35,4 km/h (5 Bft) 91,49 %
03.03.2019 13:28 11,3 C 10,0 C 9,4 C 90 % 1004,8 hPa 0,0 l/m 0 min 2 min 56 W/m 25,7 km/h (4 Bft) 95,65 %
03.03.2019 13:30 11,3 C 10,0 C 9,4 C 90 % 1004,9 hPa 0,0 l/m 0 min 2 min 54 W/m 35,4 km/h (5 Bft) 95,74 %
03.03.2019 13:32 11,3 C 10,0 C 9,4 C 90 % 1004,8 hPa 0,0 l/m 0 min 2 min 52 W/m 25,7 km/h (4 Bft) 95,74 %
03.03.2019 13:34 11,3 C 10,0 C 9,4 C 90 % 1004,8 hPa 0,0 l/m 0 min 0 min 53 W/m 22,5 km/h (4 Bft) 95,74 %
03.03.2019 13:36 11,3 C 10,0 C 9,4 C 90 % 1004,8 hPa 0,0 l/m 0 min 0 min 53 W/m 25,7 km/h (4 Bft) 96,55 %
03.03.2019 13:38 11,3 C 10,0 C 9,4 C 90 % 1004,7 hPa 0,0 l/m 0 min 0 min 51 W/m 32,2 km/h (5 Bft) 94,29 %
03.03.2019 13:40 11,3 C 10,0 C 9,4 C 90 % 1004,6 hPa 0,0 l/m 0 min 0 min 48 W/m 35,4 km/h (5 Bft) 95,74 %
03.03.2019 13:42 11,3 C 10,0 C 9,4 C 90 % 1004,7 hPa 0,0 l/m 0 min 2 min 46 W/m 25,7 km/h (4 Bft) 95,74 %
03.03.2019 13:44 11,3 C 10,0 C 9,4 C 90 % 1004,6 hPa 0,0 l/m 0 min 2 min 39 W/m 35,4 km/h (5 Bft) 95,74 %
03.03.2019 13:46 11,3 C 10,0 C 9,4 C 90 % 1004,7 hPa 0,0 l/m 0 min 2 min 35 W/m 25,7 km/h (4 Bft) 97,87 %
03.03.2019 13:48 11,3 C 10,6 C 9,4 C 90 % 1004,7 hPa 0,0 l/m 0 min 2 min 34 W/m 32,2 km/h (5 Bft) 97,87 %
03.03.2019 13:50 11,4 C 10,6 C 9,4 C 89 % 1004,6 hPa 0,0 l/m 0 min 2 min 35 W/m 41,8 km/h (6 Bft) 100,00 %
03.03.2019 13:52 11,4 C 10,6 C 9,4 C 89 % 1004,6 hPa 0,0 l/m 0 min 2 min 38 W/m 32,2 km/h (5 Bft) 95,74 %
03.03.2019 13:54 11,4 C 10,6 C 9,4 C 89 % 1004,6 hPa 0,0 l/m 0 min 2 min 41 W/m 29,0 km/h (5 Bft) 100,00 %
03.03.2019 13:56 11,4 C 10,6 C 9,4 C 89 % 1004,5 hPa 0,0 l/m 0 min 2 min 42 W/m 25,7 km/h (4 Bft) 100,00 %
03.03.2019 13:58 11,4 C 10,6 C 9,4 C 89 % 1004,5 hPa 0,0 l/m 0 min 2 min 41 W/m 25,7 km/h (4 Bft) 95,74 %
03.03.2019 14:00 11,4 C 10,6 C 9,4 C 90 % 1004,5 hPa 0,0 l/m 0 min 2 min 41 W/m 25,7 km/h (4 Bft) 97,87 %
03.03.2019 14:02 11,3 C 10,6 C 9,4 C 90 % 1004,5 hPa 0,0 l/m 0 min 2 min 40 W/m 29,0 km/h (5 Bft) 100,00 %
03.03.2019 14:04 11,3 C 10,6 C 9,4 C 90 % 1004,5 hPa 0,0 l/m 0 min 2 min 40 W/m 29,0 km/h (5 Bft) 100,00 %
03.03.2019 14:06 11,4 C 10,6 C 9,4 C 90 % 1004,4 hPa 0,0 l/m 0 min 2 min 39 W/m 32,2 km/h (5 Bft) 100,00 %
03.03.2019 14:08 11,3 C 10,6 C 9,4 C 90 % 1004,4 hPa 0,0 l/m 0 min 2 min 36 W/m 32,2 km/h (5 Bft) 100,00 %
03.03.2019 14:10 11,4 C 10,6 C 9,4 C 90 % 1004,4 hPa 0,0 l/m 0 min 2 min 34 W/m 25,7 km/h (4 Bft) 100,00 %
03.03.2019 14:12 11,4 C 10,6 C 9,4 C 90 % 1004,4 hPa 0,0 l/m 0 min 2 min 37 W/m 38,6 km/h (5 Bft) 100,00 %
03.03.2019 14:14 11,3 C 10,6 C 9,4 C 90 % 1004,4 hPa 0,0 l/m 0 min 2 min 35 W/m 35,4 km/h (5 Bft) 100,00 %
03.03.2019 14:16 11,3 C 10,6 C 9,4 C 90 % 1004,4 hPa 0,0 l/m 0 min 2 min 36 W/m 45,1 km/h (6 Bft) 97,87 %
03.03.2019 14:18 11,3 C 10,6 C 9,4 C 90 % 1004,3 hPa 0,0 l/m 0 min 2 min 37 W/m 38,6 km/h (5 Bft) 91,49 %
03.03.2019 14:20 11,3 C 10,6 C 9,4 C 89 % 1004,2 hPa 0,0 l/m 0 min 2 min 34 W/m 38,6 km/h (5 Bft) 100,00 %
03.03.2019 14:22 11,3 C 10,6 C 9,4 C 89 % 1004,2 hPa 0,0 l/m 0 min 2 min 33 W/m 35,4 km/h (5 Bft) 97,87 %
03.03.2019 14:24 11,3 C 10,6 C 9,4 C 89 % 1004,2 hPa 0,0 l/m 0 min 0 min 34 W/m 41,8 km/h (6 Bft) 100,00 %
03.03.2019 14:26 11,4 C 10,6 C 9,4 C 89 % 1004,3 hPa 0,0 l/m 0 min 2 min 33 W/m 57,9 km/h (7 Bft) 100,00 %
03.03.2019 14:28 11,4 C 10,6 C 9,4 C 89 % 1004,2 hPa 0,0 l/m 0 min 0 min 37 W/m 22,5 km/h (4 Bft) 100,00 %
03.03.2019 14:30 11,4 C 11,1 C 9,4 C 89 % 1004,1 hPa 0,0 l/m 0 min 0 min 39 W/m 45,1 km/h (6 Bft) 97,87 %
03.03.2019 14:32 11,4 C 11,1 C 9,4 C 89 % 1004,1 hPa 0,0 l/m 0 min 0 min 39 W/m 35,4 km/h (5 Bft) 93,62 %
03.03.2019 14:34 11,4 C 11,1 C 9,4 C 89 % 1004,2 hPa 0,0 l/m 0 min 0 min 35 W/m 35,4 km/h (5 Bft) 97,87 %
03.03.2019 14:36 11,4 C 11,1 C 9,4 C 89 % 1004,1 hPa 0,0 l/m 0 min 0 min 36 W/m 48,3 km/h (6 Bft) 100,00 %
03.03.2019 14:38 11,4 C 11,1 C 9,4 C 89 % 1004,2 hPa 0,0 l/m 0 min 0 min 35 W/m 51,5 km/h (7 Bft) 97,14 %
03.03.2019 14:40 11,4 C 11,1 C 9,4 C 89 % 1004,2 hPa 0,0 l/m 0 min 0 min 31 W/m 48,3 km/h (6 Bft) 97,87 %
03.03.2019 14:42 11,4 C 11,1 C 9,4 C 89 % 1004,1 hPa 0,0 l/m 0 min 0 min 31 W/m 38,6 km/h (5 Bft) 97,87 %
03.03.2019 14:44 11,4 C 10,6 C 9,4 C 89 % 1004,1 hPa 0,0 l/m 0 min 0 min 27 W/m 35,4 km/h (5 Bft) 100,00 %
03.03.2019 14:46 11,4 C 10,6 C 9,4 C 89 % 1004,2 hPa 0,0 l/m 0 min 0 min 24 W/m 41,8 km/h (6 Bft) 100,00 %
03.03.2019 14:48 11,4 C 10,6 C 9,4 C 89 % 1004,1 hPa 0,0 l/m 0 min 0 min 25 W/m 41,8 km/h (6 Bft) 97,87 %
03.03.2019 14:50 11,3 C 11,1 C 9,4 C 89 % 1004,1 hPa 0,0 l/m 0 min 0 min 29 W/m 45,1 km/h (6 Bft) 100,00 %
03.03.2019 14:52 11,3 C 11,1 C 9,4 C 89 % 1004,1 hPa 0,0 l/m 0 min 0 min 34 W/m 45,1 km/h (6 Bft) 95,74 %
03.03.2019 14:54 11,3 C 11,1 C 9,4 C 89 % 1004,0 hPa 0,0 l/m 0 min 0 min 39 W/m 45,1 km/h (6 Bft) 97,87 %
03.03.2019 14:56 11,3 C 11,1 C 9,4 C 89 % 1004,0 hPa 0,0 l/m 0 min 0 min 41 W/m 29,0 km/h (5 Bft) 100,00 %
03.03.2019 14:58 11,3 C 11,1 C 10,0 C 89 % 1004,0 hPa 0,0 l/m 0 min 0 min 52 W/m 22,5 km/h (4 Bft) 97,87 %
03.03.2019 15:00 11,3 C 11,1 C 10,0 C 89 % 1003,9 hPa 0,0 l/m 0 min 0 min 69 W/m 41,8 km/h (6 Bft) 100,00 %
03.03.2019 15:02 11,4 C 11,1 C 10,0 C 89 % 1003,9 hPa 0,0 l/m 0 min 0 min 92 W/m 38,6 km/h (5 Bft) 100,00 %
03.03.2019 15:04 11,4 C 11,1 C 10,6 C 89 % 1003,8 hPa 0,0 l/m 0 min 0 min 108 W/m 29,0 km/h (5 Bft) 100,00 %
03.03.2019 15:06 11,4 C 11,1 C 10,6 C 89 % 1003,7 hPa 0,0 l/m 0 min 0 min 106 W/m 38,6 km/h (5 Bft) 98,28 %
03.03.2019 15:08 11,4 C 11,1 C 10,6 C 89 % 1003,7 hPa 0,0 l/m 0 min 0 min 99 W/m 38,6 km/h (5 Bft) 100,00 %
03.03.2019 15:10 11,4 C 11,7 C 10,6 C 89 % 1003,6 hPa 0,0 l/m 0 min 0 min 97 W/m 19,3 km/h (3 Bft) 100,00 %
03.03.2019 15:12 11,5 C 11,7 C 11,1 C 89 % 1003,7 hPa 0,0 l/m 0 min 0 min 93 W/m 38,6 km/h (5 Bft) 100,00 %
03.03.2019 15:14 11,5 C 11,7 C 11,1 C 89 % 1003,6 hPa 0,0 l/m 0 min 0 min 87 W/m 35,4 km/h (5 Bft) 100,00 %
03.03.2019 15:16 11,5 C 11,7 C 11,1 C 89 % 1003,6 hPa 0,0 l/m 0 min 0 min 85 W/m 25,7 km/h (4 Bft) 100,00 %
03.03.2019 15:18 11,6 C 11,7 C 10,6 C 89 % 1003,6 hPa 0,0 l/m 0 min 0 min 80 W/m 35,4 km/h (5 Bft) 100,00 %
03.03.2019 15:20 11,6 C 11,1 C 10,6 C 89 % 1003,6 hPa 0,0 l/m 0 min 0 min 61 W/m 32,2 km/h (5 Bft) 100,00 %
03.03.2019 15:22 11,6 C 11,1 C 10,6 C 89 % 1003,6 hPa 0,0 l/m 0 min 0 min 57 W/m 29,0 km/h (5 Bft) 93,62 %
03.03.2019 15:24 11,6 C 11,1 C 10,6 C 89 % 1003,6 hPa 0,0 l/m 0 min 0 min 50 W/m 35,4 km/h (5 Bft) 100,00 %
03.03.2019 15:26 11,6 C 11,1 C 10,6 C 89 % 1003,5 hPa 0,0 l/m 0 min 0 min 46 W/m 25,7 km/h (4 Bft) 97,87 %
03.03.2019 15:28 11,6 C 11,1 C 10,6 C 89 % 1003,5 hPa 0,0 l/m 0 min 0 min 45 W/m 45,1 km/h (6 Bft) 97,87 %
03.03.2019 15:30 11,6 C 11,1 C 10,6 C 89 % 1003,4 hPa 0,0 l/m 0 min 0 min 48 W/m 35,4 km/h (5 Bft) 97,87 %
03.03.2019 15:32 11,6 C 11,1 C 10,6 C 88 % 1003,4 hPa 0,0 l/m 0 min 0 min 42 W/m 32,2 km/h (5 Bft) 95,65 %
03.03.2019 15:34 11,6 C 11,1 C 10,6 C 88 % 1003,5 hPa 0,0 l/m 0 min 0 min 44 W/m 35,4 km/h (5 Bft) 95,74 %
03.03.2019 15:36 11,6 C 11,1 C 10,6 C 88 % 1003,4 hPa 0,0 l/m 0 min 0 min 46 W/m 32,2 km/h (5 Bft) 96,61 %
03.03.2019 15:38 11,7 C 11,1 C 10,6 C 88 % 1003,5 hPa 0,0 l/m 0 min 0 min 43 W/m 29,0 km/h (5 Bft) 94,29 %
03.03.2019 15:40 11,7 C 11,1 C 10,6 C 88 % 1003,4 hPa 0,0 l/m 0 min 0 min 35 W/m 38,6 km/h (5 Bft) 95,74 %
03.03.2019 15:42 11,7 C 11,1 C 10,6 C 88 % 1003,3 hPa 0,0 l/m 0 min 0 min 35 W/m 32,2 km/h (5 Bft) 91,49 %
03.03.2019 15:44 11,7 C 11,1 C 10,6 C 88 % 1003,3 hPa 0,0 l/m 0 min 0 min 31 W/m 22,5 km/h (4 Bft) 93,48 %
03.03.2019 15:46 11,7 C 11,1 C 10,6 C 87 % 1003,4 hPa 0,0 l/m 0 min 0 min 28 W/m 32,2 km/h (5 Bft) 95,74 %
03.03.2019 15:48 11,7 C 11,1 C 10,6 C 87 % 1003,3 hPa 0,0 l/m 0 min 0 min 23 W/m 22,5 km/h (4 Bft) 95,74 %
03.03.2019 15:50 11,7 C 11,1 C 10,6 C 87 % 1003,4 hPa 0,0 l/m 0 min 0 min 20 W/m 32,2 km/h (5 Bft) 95,74 %
03.03.2019 15:52 11,7 C 11,1 C 10,6 C 87 % 1003,3 hPa 0,0 l/m 0 min 0 min 18 W/m 35,4 km/h (5 Bft) 93,62 %
03.03.2019 15:54 11,7 C 11,1 C 10,6 C 87 % 1003,4 hPa 0,0 l/m 0 min 0 min 18 W/m 41,8 km/h (6 Bft) 93,48 %
03.03.2019 15:56 11,7 C 11,1 C 10,6 C 87 % 1003,3 hPa 0,0 l/m 0 min 0 min 22 W/m 32,2 km/h (5 Bft) 95,74 %
03.03.2019 15:58 11,7 C 11,1 C 10,6 C 87 % 1003,1 hPa 0,0 l/m 0 min 0 min 20 W/m 25,7 km/h (4 Bft) 93,62 %
03.03.2019 16:00 11,7 C 11,1 C 10,6 C 87 % 1003,1 hPa 0,0 l/m 0 min 0 min 18 W/m 29,0 km/h (5 Bft) 91,49 %
03.03.2019 16:02 11,7 C 11,1 C 10,6 C 87 % 1003,1 hPa 0,0 l/m 0 min 0 min 19 W/m 29,0 km/h (5 Bft) 93,62 %
03.03.2019 16:04 11,7 C 11,1 C 10,6 C 87 % 1003,0 hPa 0,0 l/m 0 min 0 min 19 W/m 29,0 km/h (5 Bft) 93,62 %
03.03.2019 16:06 11,7 C 11,1 C 10,6 C 87 % 1002,9 hPa 0,0 l/m 0 min 0 min 19 W/m 32,2 km/h (5 Bft) 93,10 %
03.03.2019 16:08 11,7 C 11,1 C 10,6 C 87 % 1002,9 hPa 0,0 l/m 0 min 0 min 28 W/m 29,0 km/h (5 Bft) 91,43 %
03.03.2019 16:10 11,7 C 11,1 C 10,6 C 87 % 1002,9 hPa 0,0 l/m 0 min 0 min 34 W/m 32,2 km/h (5 Bft) 93,62 %
03.03.2019 16:12 11,7 C 11,1 C 10,6 C 87 % 1002,9 hPa 0,0 l/m 0 min 0 min 32 W/m 32,2 km/h (5 Bft) 91,49 %
03.03.2019 16:14 11,7 C 11,1 C 10,6 C 87 % 1002,9 hPa 0,0 l/m 0 min 0 min 28 W/m 22,5 km/h (4 Bft) 93,62 %
03.03.2019 16:16 11,7 C 11,1 C 10,6 C 87 % 1002,8 hPa 0,0 l/m 0 min 0 min 32 W/m 29,0 km/h (5 Bft) 93,62 %
03.03.2019 16:18 11,7 C 11,1 C 10,6 C 87 % 1002,8 hPa 0,0 l/m 0 min 0 min 33 W/m 32,2 km/h (5 Bft) 93,48 %
03.03.2019 16:20 11,7 C 11,1 C 10,6 C 87 % 1002,7 hPa 0,0 l/m 0 min 0 min 33 W/m 29,0 km/h (5 Bft) 95,74 %
03.03.2019 16:22 11,7 C 11,7 C 10,6 C 87 % 1002,7 hPa 0,0 l/m 0 min 0 min 36 W/m 35,4 km/h (5 Bft) 97,87 %
03.03.2019 16:24 11,7 C 11,7 C 10,6 C 87 % 1002,7 hPa 0,0 l/m 0 min 0 min 40 W/m 41,8 km/h (6 Bft) 97,87 %
03.03.2019 16:26 11,7 C 11,7 C 10,6 C 87 % 1002,5 hPa 0,0 l/m 0 min 0 min 41 W/m 29,0 km/h (5 Bft) 97,87 %
03.03.2019 16:28 11,7 C 11,7 C 10,6 C 87 % 1002,6 hPa 0,0 l/m 0 min 0 min 44 W/m 25,7 km/h (4 Bft) 93,62 %
03.03.2019 16:30 11,7 C 11,7 C 10,6 C 87 % 1002,4 hPa 0,0 l/m 0 min 0 min 40 W/m 38,6 km/h (5 Bft) 95,65 %
03.03.2019 16:32 11,8 C 11,7 C 11,1 C 86 % 1002,5 hPa 0,0 l/m 0 min 0 min 39 W/m 29,0 km/h (5 Bft) 97,87 %
03.03.2019 16:34 11,8 C 11,7 C 10,6 C 86 % 1002,4 hPa 0,0 l/m 0 min 0 min 42 W/m 29,0 km/h (5 Bft) 97,87 %
03.03.2019 16:36 11,8 C 11,7 C 11,1 C 86 % 1002,4 hPa 0,0 l/m 0 min 0 min 40 W/m 38,6 km/h (5 Bft) 98,31 %
03.03.2019 16:38 11,8 C 11,7 C 11,1 C 86 % 1002,4 hPa 0,0 l/m 0 min 0 min 39 W/m 41,8 km/h (6 Bft) 94,29 %
03.03.2019 16:40 11,8 C 11,7 C 11,1 C 86 % 1002,4 hPa 0,0 l/m 0 min 0 min 39 W/m 22,5 km/h (4 Bft) 97,87 %
03.03.2019 16:42 11,8 C 11,7 C 10,6 C 86 % 1002,3 hPa 0,0 l/m 0 min 0 min 40 W/m 29,0 km/h (5 Bft) 97,83 %
03.03.2019 16:44 11,8 C 11,7 C 10,6 C 86 % 1002,2 hPa 0,0 l/m 0 min 0 min 40 W/m 25,7 km/h (4 Bft) 97,87 %
03.03.2019 16:46 11,8 C 11,7 C 10,6 C 86 % 1002,2 hPa 0,0 l/m 0 min 0 min 38 W/m 16,1 km/h (3 Bft) 97,87 %
03.03.2019 16:48 11,8 C 11,7 C 10,6 C 86 % 1002,2 hPa 0,0 l/m 0 min 0 min 33 W/m 22,5 km/h (4 Bft) 93,62 %
03.03.2019 16:50 11,8 C 11,7 C 10,6 C 86 % 1002,2 hPa 0,0 l/m 0 min 0 min 28 W/m 32,2 km/h (5 Bft) 97,87 %
03.03.2019 16:52 11,8 C 11,7 C 11,1 C 85 % 1002,2 hPa 0,0 l/m 0 min 0 min 31 W/m 32,2 km/h (5 Bft) 97,87 %
03.03.2019 16:54 11,8 C 11,7 C 11,1 C 85 % 1002,2 hPa 0,0 l/m 0 min 0 min 32 W/m 32,2 km/h (5 Bft) 97,83 %
03.03.2019 16:56 11,9 C 11,7 C 11,1 C 85 % 1002,1 hPa 0,0 l/m 0 min 0 min 33 W/m 29,0 km/h (5 Bft) 97,87 %
03.03.2019 16:58 11,9 C 11,7 C 10,6 C 85 % 1002,0 hPa 0,0 l/m 0 min 0 min 33 W/m 19,3 km/h (3 Bft) 95,74 %
03.03.2019 17:00 11,9 C 11,7 C 11,1 C 85 % 1001,9 hPa 0,0 l/m 0 min 0 min 32 W/m 38,6 km/h (5 Bft) 100,00 %
03.03.2019 17:02 11,9 C 11,7 C 11,1 C 85 % 1001,9 hPa 0,0 l/m 0 min 0 min 30 W/m 41,8 km/h (6 Bft) 100,00 %
03.03.2019 17:04 11,9 C 11,7 C 11,1 C 85 % 1001,9 hPa 0,0 l/m 0 min 0 min 28 W/m 38,6 km/h (5 Bft) 100,00 %
03.03.2019 17:06 11,9 C 11,7 C 11,1 C 84 % 1001,8 hPa 0,0 l/m 0 min 0 min 26 W/m 38,6 km/h (5 Bft) 97,87 %
03.03.2019 17:08 11,9 C 11,7 C 11,1 C 84 % 1001,8 hPa 0,0 l/m 0 min 0 min 24 W/m 22,5 km/h (4 Bft) 100,00 %
03.03.2019 17:10 11,9 C 11,7 C 11,1 C 84 % 1001,7 hPa 0,0 l/m 0 min 0 min 22 W/m 35,4 km/h (5 Bft) 100,00 %
03.03.2019 17:12 11,9 C 11,7 C 11,1 C 84 % 1001,7 hPa 0,0 l/m 0 min 0 min 21 W/m 35,4 km/h (5 Bft) 100,00 %
03.03.2019 17:14 11,9 C 11,7 C 11,1 C 84 % 1001,6 hPa 0,0 l/m 0 min 0 min 23 W/m 29,0 km/h (5 Bft) 100,00 %
03.03.2019 17:16 11,9 C 11,7 C 11,1 C 84 % 1001,5 hPa 0,0 l/m 0 min 0 min 23 W/m 35,4 km/h (5 Bft) 97,87 %
03.03.2019 17:18 11,9 C 11,7 C 11,1 C 84 % 1001,5 hPa 0,0 l/m 0 min 0 min 21 W/m 29,0 km/h (5 Bft) 100,00 %
03.03.2019 17:20 12,0 C 11,7 C 11,1 C 84 % 1001,5 hPa 0,0 l/m 0 min 0 min 19 W/m 32,2 km/h (5 Bft) 100,00 %
03.03.2019 17:22 12,0 C 11,7 C 11,1 C 84 % 1001,4 hPa 0,0 l/m 0 min 0 min 19 W/m 22,5 km/h (4 Bft) 100,00 %
03.03.2019 17:24 12,0 C 11,7 C 11,1 C 84 % 1001,5 hPa 0,0 l/m 0 min 0 min 18 W/m 38,6 km/h (5 Bft) 100,00 %
03.03.2019 17:26 12,0 C 11,7 C 11,1 C 84 % 1001,5 hPa 0,0 l/m 0 min 0 min 17 W/m 38,6 km/h (5 Bft) 100,00 %
03.03.2019 17:28 12,0 C 11,7 C 11,1 C 83 % 1001,4 hPa 0,0 l/m 0 min 0 min 16 W/m 35,4 km/h (5 Bft) 100,00 %
03.03.2019 17:30 12,0 C 11,7 C 11,1 C 83 % 1001,5 hPa 0,0 l/m 0 min 0 min 16 W/m 29,0 km/h (5 Bft) 100,00 %
03.03.2019 17:32 12,1 C 11,7 C 11,1 C 83 % 1001,4 hPa 0,0 l/m 0 min 0 min 16 W/m 29,0 km/h (5 Bft) 100,00 %
03.03.2019 17:34 12,1 C 11,7 C 11,1 C 83 % 1001,3 hPa 0,0 l/m 0 min 0 min 16 W/m 29,0 km/h (5 Bft) 100,00 %
03.03.2019 17:36 12,1 C 11,7 C 11,1 C 83 % 1001,4 hPa 0,0 l/m 0 min 0 min 16 W/m 38,6 km/h (5 Bft) 100,00 %
03.03.2019 17:38 12,1 C 11,7 C 11,1 C 83 % 1001,4 hPa 0,0 l/m 0 min 0 min 16 W/m 41,8 km/h (6 Bft) 100,00 %
03.03.2019 17:40 12,1 C 11,7 C 11,1 C 83 % 1001,4 hPa 0,0 l/m 0 min 0 min 14 W/m 22,5 km/h (4 Bft) 100,00 %
03.03.2019 17:42 12,1 C 11,7 C 11,1 C 83 % 1001,4 hPa 0,0 l/m 0 min 0 min 14 W/m 32,2 km/h (5 Bft) 97,87 %
03.03.2019 17:44 12,1 C 11,7 C 11,1 C 83 % 1001,3 hPa 0,0 l/m 0 min 0 min 14 W/m 29,0 km/h (5 Bft) 100,00 %
03.03.2019 17:46 12,1 C 11,7 C 11,1 C 83 % 1001,3 hPa 0,0 l/m 0 min 0 min 13 W/m 32,2 km/h (5 Bft) 100,00 %
03.03.2019 17:48 12,1 C 11,7 C 11,1 C 83 % 1001,3 hPa 0,0 l/m 0 min 0 min 11 W/m 22,5 km/h (4 Bft) 100,00 %
03.03.2019 17:50 12,1 C 11,7 C 11,1 C 83 % 1001,4 hPa 0,0 l/m 0 min 0 min 9 W/m 32,2 km/h (5 Bft) 100,00 %
03.03.2019 17:52 12,1 C 11,7 C 11,1 C 83 % 1001,3 hPa 0,0 l/m 0 min 0 min 7 W/m 25,7 km/h (4 Bft) 97,83 %
03.03.2019 17:54 12,1 C 11,7 C 11,1 C 83 % 1001,4 hPa 0,0 l/m 0 min 0 min 6 W/m 29,0 km/h (5 Bft) 100,00 %
03.03.2019 17:56 12,1 C 11,7 C 11,1 C 83 % 1001,2 hPa 0,0 l/m 0 min 0 min 5 W/m 29,0 km/h (5 Bft) 100,00 %
03.03.2019 17:58 12,1 C 11,7 C 11,1 C 83 % 1001,3 hPa 0,0 l/m 0 min 0 min 5 W/m 35,4 km/h (5 Bft) 100,00 %
03.03.2019 18:00 12,1 C 11,7 C 11,1 C 83 % 1001,2 hPa 0,0 l/m 0 min 0 min 5 W/m 25,7 km/h (4 Bft) 100,00 %
03.03.2019 18:02 12,1 C 11,7 C 11,1 C 83 % 1001,2 hPa 0,0 l/m 0 min 0 min 5 W/m 29,0 km/h (5 Bft) 100,00 %
03.03.2019 18:04 12,1 C 11,7 C 11,1 C 83 % 1001,1 hPa 0,0 l/m 0 min 0 min 5 W/m 32,2 km/h (5 Bft) 95,65 %
03.03.2019 18:07 12,2 C 11,7 C 11,1 C 82 % 1001,0 hPa 0,0 l/m 0 min 0 min 0 W/m 41,8 km/h (6 Bft) 97,18 %
03.03.2019 18:08 12,2 C 11,7 C 11,1 C 82 % 1001,0 hPa 0,0 l/m 0 min 0 min 0 W/m 22,5 km/h (4 Bft) 95,65 %
03.03.2019 18:10 12,2 C 11,7 C 11,1 C 82 % 1001,0 hPa 0,0 l/m 0 min 0 min 0 W/m 41,8 km/h (6 Bft) 97,87 %
03.03.2019 18:12 12,2 C 11,7 C 11,1 C 82 % 1001,0 hPa 0,0 l/m 0 min 0 min 0 W/m 29,0 km/h (5 Bft) 97,87 %
03.03.2019 18:14 12,2 C 11,7 C 11,1 C 82 % 1001,0 hPa 0,0 l/m 0 min 0 min 0 W/m 25,7 km/h (4 Bft) 97,87 %
03.03.2019 18:16 12,2 C 11,7 C 11,1 C 82 % 1001,0 hPa 0,0 l/m 0 min 0 min 0 W/m 32,2 km/h (5 Bft) 95,65 %
03.03.2019 18:18 12,2 C 11,7 C 11,1 C 82 % 1000,9 hPa 0,0 l/m 0 min 0 min 0 W/m 22,5 km/h (4 Bft) 93,62 %
03.03.2019 18:22 12,2 C 11,7 C 11,1 C 82 % 1000,9 hPa 0,0 l/m 0 min 0 min 0 W/m 16,1 km/h (3 Bft) 97,83 %
03.03.2019 18:24 12,2 C 11,7 C 11,1 C 82 % 1000,9 hPa 0,0 l/m 0 min 0 min 0 W/m 35,4 km/h (5 Bft) 97,87 %
03.03.2019 18:26 12,2 C 11,7 C 11,1 C 82 % 1000,9 hPa 0,0 l/m 0 min 0 min 0 W/m 19,3 km/h (3 Bft) 97,87 %
03.03.2019 18:28 12,2 C 11,7 C 11,1 C 82 % 1000,9 hPa 0,0 l/m 0 min 0 min 0 W/m 35,4 km/h (5 Bft) 97,87 %
03.03.2019 18:30 12,2 C 11,7 C 11,1 C 82 % 1000,8 hPa 0,0 l/m 0 min 0 min 0 W/m 38,6 km/h (5 Bft) 95,65 %
03.03.2019 18:32 12,2 C 11,7 C 11,1 C 82 % 1000,8 hPa 0,0 l/m 0 min 0 min 0 W/m 32,2 km/h (5 Bft) 97,87 %
03.03.2019 18:34 12,2 C 11,7 C 11,1 C 82 % 1000,8 hPa 0,0 l/m 0 min 0 min 0 W/m 25,7 km/h (4 Bft) 95,74 %
03.03.2019 18:36 12,2 C 11,7 C 11,1 C 82 % 1000,7 hPa 0,0 l/m 0 min 0 min 0 W/m 32,2 km/h (5 Bft) 97,87 %
03.03.2019 18:38 12,2 C 11,7 C 11,1 C 82 % 1000,7 hPa 0,0 l/m 0 min 0 min 0 W/m 35,4 km/h (5 Bft) 97,92 %
03.03.2019 18:40 12,2 C 11,7 C 11,1 C 82 % 1000,7 hPa 0,0 l/m 0 min 0 min 0 W/m 35,4 km/h (5 Bft) 95,65 %
03.03.2019 18:42 12,2 C 11,7 C 11,1 C 82 % 1000,7 hPa 0,0 l/m 0 min 0 min 0 W/m 22,5 km/h (4 Bft) 93,62 %
03.03.2019 18:44 12,2 C 11,7 C 11,1 C 82 % 1000,6 hPa 0,0 l/m 0 min 0 min 0 W/m 29,0 km/h (5 Bft) 95,74 %
03.03.2019 18:46 12,2 C 11,7 C 11,1 C 82 % 1000,7 hPa 0,0 l/m 0 min 0 min 0 W/m 29,0 km/h (5 Bft) 95,74 %
03.03.2019 18:48 12,2 C 11,7 C 11,1 C 82 % 1000,6 hPa 0,0 l/m 0 min 0 min 0 W/m 25,7 km/h (4 Bft) 95,74 %
03.03.2019 18:50 12,2 C 11,7 C 11,1 C 81 % 1000,5 hPa 0,0 l/m 0 min 0 min 0 W/m 22,5 km/h (4 Bft) 97,87 %
03.03.2019 18:52 12,2 C 11,7 C 11,1 C 81 % 1000,5 hPa 0,0 l/m 0 min 0 min 0 W/m 29,0 km/h (5 Bft) 95,65 %
03.03.2019 18:54 12,2 C 11,7 C 11,1 C 81 % 1000,5 hPa 0,0 l/m 0 min 0 min 0 W/m 19,3 km/h (3 Bft) 97,87 %
03.03.2019 18:56 12,2 C 11,7 C 11,1 C 81 % 1000,5 hPa 0,0 l/m 0 min 0 min 0 W/m 41,8 km/h (6 Bft) 93,62 %
03.03.2019 18:58 12,2 C 11,7 C 11,1 C 81 % 1000,4 hPa 0,0 l/m 0 min 0 min 0 W/m 19,3 km/h (3 Bft) 95,74 %
03.03.2019 19:00 12,2 C 11,7 C 11,1 C 81 % 1000,5 hPa 0,0 l/m 0 min 0 min 0 W/m 25,7 km/h (4 Bft) 97,87 %
03.03.2019 19:02 12,3 C 11,7 C 11,1 C 81 % 1000,5 hPa 0,0 l/m 0 min 0 min 0 W/m 25,7 km/h (4 Bft) 95,74 %
03.03.2019 19:04 12,2 C 11,7 C 11,1 C 81 % 1000,5 hPa 0,0 l/m 0 min 0 min 0 W/m 22,5 km/h (4 Bft) 97,83 %
03.03.2019 19:06 12,2 C 11,7 C 11,1 C 81 % 1000,5 hPa 0,0 l/m 0 min 0 min 0 W/m 32,2 km/h (5 Bft) 95,74 %
03.03.2019 19:08 12,3 C 11,7 C 11,1 C 81 % 1000,4 hPa 0,0 l/m 0 min 0 min 0 W/m 32,2 km/h (5 Bft) 94,29 %
03.03.2019 19:10 12,2 C 11,7 C 11,1 C 81 % 1000,5 hPa 0,0 l/m 0 min 0 min 0 W/m 22,5 km/h (4 Bft) 97,87 %
03.03.2019 19:12 12,3 C 11,7 C 11,1 C 81 % 1000,4 hPa 0,0 l/m 0 min 0 min 0 W/m 22,5 km/h (4 Bft) 95,74 %
03.03.2019 19:14 12,3 C 11,7 C 11,1 C 81 % 1000,4 hPa 0,0 l/m 0 min 0 min 0 W/m 19,3 km/h (3 Bft) 97,87 %
03.03.2019 19:16 12,2 C 11,7 C 11,1 C 81 % 1000,4 hPa 0,0 l/m 0 min 0 min 0 W/m 25,7 km/h (4 Bft) 95,74 %
03.03.2019 19:18 12,3 C 11,7 C 11,1 C 80 % 1000,3 hPa 0,0 l/m 0 min 0 min 0 W/m 29,0 km/h (5 Bft) 95,65 %
03.03.2019 19:20 12,3 C 11,7 C 11,1 C 80 % 1000,3 hPa 0,0 l/m 0 min 0 min 0 W/m 38,6 km/h (5 Bft) 93,62 %
03.03.2019 19:22 12,3 C 11,7 C 11,1 C 80 % 1000,3 hPa 0,0 l/m 0 min 0 min 0 W/m 19,3 km/h (3 Bft) 93,62 %
03.03.2019 19:24 12,3 C 11,7 C 11,1 C 80 % 1000,3 hPa 0,0 l/m 0 min 0 min 0 W/m 25,7 km/h (4 Bft) 95,74 %
03.03.2019 19:26 12,3 C 11,7 C 11,1 C 80 % 1000,3 hPa 0,0 l/m 0 min 0 min 0 W/m 25,7 km/h (4 Bft) 95,74 %
03.03.2019 19:28 12,3 C 11,7 C 11,1 C 80 % 1000,3 hPa 0,0 l/m 0 min 0 min 0 W/m 19,3 km/h (3 Bft) 95,74 %
03.03.2019 19:30 12,3 C 11,7 C 11,1 C 80 % 1000,2 hPa 0,0 l/m 0 min 0 min 0 W/m 19,3 km/h (3 Bft) 95,65 %
03.03.2019 19:32 12,3 C 11,7 C 11,1 C 80 % 1000,2 hPa 0,0 l/m 0 min 0 min 0 W/m 51,5 km/h (7 Bft) 95,74 %
03.03.2019 19:34 12,3 C 11,7 C 11,1 C 80 % 1000,1 hPa 0,0 l/m 0 min 0 min 0 W/m 32,2 km/h (5 Bft) 95,74 %
03.03.2019 19:36 12,3 C 11,7 C 11,1 C 80 % 1000,1 hPa 0,0 l/m 0 min 0 min 0 W/m 25,7 km/h (4 Bft) 96,61 %
03.03.2019 19:38 12,3 C 11,7 C 11,1 C 80 % 1000,0 hPa 0,0 l/m 0 min 0 min 0 W/m 38,6 km/h (5 Bft) 97,14 %
03.03.2019 19:40 12,3 C 11,7 C 11,1 C 80 % 999,8 hPa 0,0 l/m 0 min 0 min 0 W/m 22,5 km/h (4 Bft) 97,87 %
03.03.2019 19:42 12,3 C 11,7 C 11,1 C 80 % 999,9 hPa 0,0 l/m 0 min 0 min 0 W/m 32,2 km/h (5 Bft) 97,83 %
03.03.2019 19:44 12,3 C 11,7 C 11,1 C 80 % 999,8 hPa 0,0 l/m 0 min 0 min 0 W/m 35,4 km/h (5 Bft) 95,74 %
03.03.2019 19:46 12,3 C 11,7 C 11,1 C 80 % 999,7 hPa 0,0 l/m 0 min 0 min 0 W/m 22,5 km/h (4 Bft) 97,87 %
03.03.2019 19:48 12,3 C 11,7 C 11,1 C 80 % 999,7 hPa 0,0 l/m 0 min 0 min 0 W/m 35,4 km/h (5 Bft) 97,87 %
03.03.2019 19:50 12,3 C 11,7 C 11,1 C 79 % 999,7 hPa 0,0 l/m 0 min 0 min 0 W/m 38,6 km/h (5 Bft) 95,74 %
03.03.2019 19:52 12,3 C 11,7 C 11,1 C 79 % 999,6 hPa 0,0 l/m 0 min 0 min 0 W/m 32,2 km/h (5 Bft) 95,74 %
03.03.2019 19:54 12,3 C 11,7 C 11,1 C 79 % 999,6 hPa 0,0 l/m 0 min 0 min 0 W/m 25,7 km/h (4 Bft) 97,83 %
03.03.2019 19:56 12,3 C 11,7 C 11,1 C 79 % 999,7 hPa 0,0 l/m 0 min 0 min 0 W/m 22,5 km/h (4 Bft) 97,87 %
03.03.2019 19:58 12,3 C 11,7 C 11,1 C 79 % 999,6 hPa 0,0 l/m 0 min 0 min 0 W/m 29,0 km/h (5 Bft) 97,87 %
03.03.2019 20:00 12,4 C 11,7 C 11,1 C 79 % 999,6 hPa 0,0 l/m 0 min 0 min 0 W/m 32,2 km/h (5 Bft) 97,87 %
03.03.2019 20:02 12,4 C 11,7 C 11,1 C 79 % 999,5 hPa 0,0 l/m 0 min 0 min 0 W/m 29,0 km/h (5 Bft) 97,87 %
03.03.2019 20:04 12,4 C 11,7 C 11,1 C 79 % 999,4 hPa 0,0 l/m 0 min 0 min 0 W/m 25,7 km/h (4 Bft) 97,83 %
03.03.2019 20:06 12,4 C 11,7 C 11,1 C 79 % 999,3 hPa 0,0 l/m 0 min 0 min 0 W/m 19,3 km/h (3 Bft) 98,31 %
03.03.2019 20:08 12,4 C 11,7 C 11,1 C 79 % 999,3 hPa 0,0 l/m 0 min 0 min 0 W/m 25,7 km/h (4 Bft) 100,00 %
03.03.2019 20:10 12,4 C 11,7 C 11,1 C 79 % 999,3 hPa 0,0 l/m 0 min 0 min 0 W/m 32,2 km/h (5 Bft) 100,00 %
03.03.2019 20:12 12,4 C 11,7 C 11,1 C 79 % 999,3 hPa 0,0 l/m 0 min 0 min 0 W/m 32,2 km/h (5 Bft) 100,00 %
03.03.2019 20:14 12,4 C 11,7 C 11,1 C 79 % 999,2 hPa 0,0 l/m 0 min 0 min 0 W/m 32,2 km/h (5 Bft) 100,00 %
03.03.2019 20:16 12,4 C 11,7 C 11,1 C 79 % 999,2 hPa 0,0 l/m 0 min 0 min 0 W/m 29,0 km/h (5 Bft) 100,00 %
03.03.2019 20:18 12,4 C 11,7 C 11,1 C 79 % 999,1 hPa 0,0 l/m 0 min 0 min 0 W/m 16,1 km/h (3 Bft) 97,87 %
03.03.2019 20:20 12,4 C 11,1 C 10,6 C 79 % 999,2 hPa 0,0 l/m 0 min 2 min 0 W/m 19,3 km/h (3 Bft) 100,00 %
03.03.2019 20:22 12,4 C 11,1 C 10,0 C 80 % 999,2 hPa 0,0 l/m 0 min 2 min 0 W/m 19,3 km/h (3 Bft) 97,87 %
03.03.2019 20:24 12,3 C 11,1 C 10,0 C 80 % 999,1 hPa 0,0 l/m 0 min 0 min 0 W/m 29,0 km/h (5 Bft) 100,00 %
03.03.2019 20:26 12,3 C 11,1 C 10,6 C 80 % 999,0 hPa 0,0 l/m 0 min 2 min 0 W/m 29,0 km/h (5 Bft) 100,00 %
03.03.2019 20:28 12,3 C 11,7 C 10,6 C 80 % 999,0 hPa 0,0 l/m 0 min 2 min 0 W/m 29,0 km/h (5 Bft) 100,00 %
03.03.2019 20:30 12,3 C 11,7 C 10,6 C 81 % 999,1 hPa 0,0 l/m 0 min 0 min 0 W/m 29,0 km/h (5 Bft) 100,00 %
03.03.2019 20:32 12,3 C 11,7 C 11,1 C 81 % 999,0 hPa 0,0 l/m 0 min 0 min 0 W/m 35,4 km/h (5 Bft) 100,00 %
03.03.2019 20:34 12,3 C 11,7 C 11,1 C 81 % 999,0 hPa 0,0 l/m 0 min 0 min 0 W/m 19,3 km/h (3 Bft) 97,87 %
03.03.2019 20:36 12,2 C 11,7 C 11,1 C 81 % 999,0 hPa 0,0 l/m 0 min 0 min 0 W/m 38,6 km/h (5 Bft) 98,28 %
03.03.2019 20:38 12,3 C 11,7 C 11,1 C 81 % 999,0 hPa 0,0 l/m 0 min 0 min 0 W/m 22,5 km/h (4 Bft) 100,00 %
03.03.2019 20:40 12,3 C 11,7 C 11,1 C 81 % 999,0 hPa 0,0 l/m 0 min 0 min 0 W/m 38,6 km/h (5 Bft) 95,65 %
03.03.2019 20:42 12,3 C 11,7 C 11,1 C 81 % 998,9 hPa 0,0 l/m 0 min 0 min 0 W/m 22,5 km/h (4 Bft) 97,87 %
03.03.2019 20:44 12,3 C 11,7 C 11,1 C 81 % 998,9 hPa 0,0 l/m 0 min 0 min 0 W/m 48,3 km/h (6 Bft) 97,87 %
03.03.2019 20:46 12,3 C 11,7 C 11,1 C 81 % 998,9 hPa 0,0 l/m 0 min 0 min 0 W/m 22,5 km/h (4 Bft) 96,23 %
03.03.2019 20:48 12,3 C 11,7 C 11,1 C 81 % 998,9 hPa 0,0 l/m 0 min 0 min 0 W/m 22,5 km/h (4 Bft) 97,87 %
03.03.2019 20:50 12,3 C 11,7 C 11,1 C 81 % 998,8 hPa 0,0 l/m 0 min 0 min 0 W/m 35,4 km/h (5 Bft) 97,87 %
03.03.2019 20:52 12,3 C 11,7 C 11,1 C 80 % 998,8 hPa 0,0 l/m 0 min 0 min 0 W/m 29,0 km/h (5 Bft) 93,48 %
03.03.2019 20:54 12,3 C 11,7 C 11,1 C 81 % 998,7 hPa 0,0 l/m 0 min 0 min 0 W/m 19,3 km/h (3 Bft) 97,87 %
03.03.2019 20:56 12,3 C 11,7 C 11,1 C 81 % 998,8 hPa 0,0 l/m 0 min 0 min 0 W/m 25,7 km/h (4 Bft) 95,74 %
03.03.2019 20:58 12,3 C 11,7 C 11,1 C 81 % 998,8 hPa 0,0 l/m 0 min 0 min 0 W/m 19,3 km/h (3 Bft) 97,87 %
03.03.2019 21:00 12,3 C 11,7 C 11,1 C 81 % 998,8 hPa 0,0 l/m 0 min 0 min 0 W/m 32,2 km/h (5 Bft) 97,87 %
03.03.2019 21:02 12,3 C 11,7 C 11,1 C 80 % 998,8 hPa 0,0 l/m 0 min 0 min 0 W/m 29,0 km/h (5 Bft) 97,87 %
03.03.2019 21:04 12,3 C 11,7 C 11,1 C 81 % 998,8 hPa 0,0 l/m 0 min 0 min 0 W/m 29,0 km/h (5 Bft) 97,83 %
03.03.2019 21:06 12,4 C 12,2 C 11,1 C 80 % 998,8 hPa 0,0 l/m 0 min 0 min 0 W/m 38,6 km/h (5 Bft) 98,31 %
03.03.2019 21:08 12,4 C 11,7 C 11,1 C 80 % 998,8 hPa 0,0 l/m 0 min 0 min 0 W/m 22,5 km/h (4 Bft) 97,14 %
03.03.2019 21:10 12,4 C 11,7 C 11,1 C 80 % 998,8 hPa 0,0 l/m 0 min 0 min 0 W/m 35,4 km/h (5 Bft) 97,87 %
03.03.2019 21:12 12,4 C 11,7 C 11,1 C 80 % 998,7 hPa 0,0 l/m 0 min 0 min 0 W/m 29,0 km/h (5 Bft) 95,74 %
03.03.2019 21:14 12,4 C 11,7 C 11,1 C 81 % 998,6 hPa 0,0 l/m 0 min 0 min 0 W/m 29,0 km/h (5 Bft) 97,87 %
03.03.2019 21:16 12,4 C 11,7 C 11,1 C 81 % 998,6 hPa 0,0 l/m 0 min 0 min 0 W/m 29,0 km/h (5 Bft) 97,83 %
03.03.2019 21:18 12,4 C 11,7 C 11,1 C 81 % 998,6 hPa 0,0 l/m 0 min 0 min 0 W/m 35,4 km/h (5 Bft) 97,87 %
03.03.2019 21:20 12,4 C 11,7 C 11,1 C 81 % 998,6 hPa 0,0 l/m 0 min 0 min 0 W/m 32,2 km/h (5 Bft) 97,87 %
03.03.2019 21:22 12,4 C 11,7 C 11,1 C 81 % 998,5 hPa 0,0 l/m 0 min 0 min 0 W/m 25,7 km/h (4 Bft) 97,87 %
03.03.2019 21:24 12,4 C 11,7 C 11,1 C 81 % 998,4 hPa 0,0 l/m 0 min 0 min 0 W/m 25,7 km/h (4 Bft) 97,87 %
03.03.2019 21:26 12,4 C 11,7 C 11,1 C 81 % 998,3 hPa 0,0 l/m 0 min 0 min 0 W/m 25,7 km/h (4 Bft) 97,87 %
03.03.2019 21:28 12,4 C 12,2 C 11,1 C 81 % 998,3 hPa 0,0 l/m 0 min 0 min 0 W/m 32,2 km/h (5 Bft) 97,83 %
03.03.2019 21:30 12,4 C 12,2 C 11,1 C 81 % 998,2 hPa 0,0 l/m 0 min 0 min 0 W/m 22,5 km/h (4 Bft) 100,00 %
03.03.2019 21:32 12,4 C 12,2 C 11,1 C 81 % 998,2 hPa 0,0 l/m 0 min 0 min 0 W/m 32,2 km/h (5 Bft) 100,00 %
03.03.2019 21:34 12,4 C 12,2 C 11,7 C 81 % 998,2 hPa 0,0 l/m 0 min 0 min 0 W/m 32,2 km/h (5 Bft) 97,87 %
03.03.2019 21:36 12,5 C 12,2 C 11,7 C 81 % 998,1 hPa 0,0 l/m 0 min 0 min 0 W/m 41,8 km/h (6 Bft) 100,00 %
03.03.2019 21:38 12,5 C 12,2 C 11,7 C 81 % 998,2 hPa 0,0 l/m 0 min 0 min 0 W/m 25,7 km/h (4 Bft) 100,00 %
03.03.2019 21:40 12,5 C 12,2 C 11,7 C 81 % 998,2 hPa 0,0 l/m 0 min 0 min 0 W/m 32,2 km/h (5 Bft) 100,00 %
03.03.2019 21:42 12,6 C 12,2 C 11,7 C 81 % 998,1 hPa 0,0 l/m 0 min 0 min 0 W/m 29,0 km/h (5 Bft) 100,00 %
03.03.2019 21:44 12,6 C 12,2 C 11,7 C 81 % 998,2 hPa 0,0 l/m 0 min 0 min 0 W/m 32,2 km/h (5 Bft) 95,74 %
03.03.2019 21:46 12,6 C 12,2 C 11,7 C 80 % 998,1 hPa 0,0 l/m 0 min 0 min 0 W/m 32,2 km/h (5 Bft) 100,00 %
03.03.2019 21:48 12,7 C 12,2 C 11,7 C 80 % 998,1 hPa 0,0 l/m 0 min 0 min 0 W/m 51,5 km/h (7 Bft) 100,00 %
03.03.2019 21:50 12,7 C 12,2 C 11,7 C 80 % 998,1 hPa 0,0 l/m 0 min 0 min 0 W/m 29,0 km/h (5 Bft) 100,00 %
03.03.2019 21:52 12,7 C 12,2 C 11,7 C 80 % 998,1 hPa 0,0 l/m 0 min 0 min 0 W/m 35,4 km/h (5 Bft) 100,00 %
03.03.2019 21:54 12,7 C 12,2 C 11,7 C 80 % 998,1 hPa 0,0 l/m 0 min 0 min 0 W/m 41,8 km/h (6 Bft) 100,00 %
03.03.2019 21:56 12,7 C 12,2 C 11,7 C 80 % 998,0 hPa 0,0 l/m 0 min 0 min 0 W/m 35,4 km/h (5 Bft) 100,00 %
03.03.2019 21:58 12,8 C 12,2 C 11,7 C 80 % 998,2 hPa 0,0 l/m 0 min 0 min 0 W/m 35,4 km/h (5 Bft) 100,00 %
03.03.2019 22:00 12,8 C 12,2 C 11,7 C 80 % 998,1 hPa 0,0 l/m 0 min 0 min 0 W/m 35,4 km/h (5 Bft) 93,62 %
03.03.2019 22:02 12,8 C 12,2 C 11,7 C 80 % 998,1 hPa 0,0 l/m 0 min 0 min 0 W/m 48,3 km/h (6 Bft) 93,48 %
03.03.2019 22:04 12,8 C 12,2 C 11,7 C 80 % 998,1 hPa 0,0 l/m 0 min 0 min 0 W/m 51,5 km/h (7 Bft) 93,62 %
03.03.2019 22:06 12,9 C 12,2 C 11,7 C 80 % 998,3 hPa 0,0 l/m 0 min 0 min 0 W/m 35,4 km/h (5 Bft) 97,87 %
03.03.2019 22:08 12,9 C 12,2 C 11,7 C 80 % 998,1 hPa 0,0 l/m 0 min 2 min 0 W/m 38,6 km/h (5 Bft) 95,74 %
03.03.2019 22:10 12,9 C 11,7 C 11,1 C 80 % 998,1 hPa 0,0 l/m 0 min 2 min 0 W/m 45,1 km/h (6 Bft) 97,83 %
03.03.2019 22:12 12,9 C 12,2 C 11,7 C 80 % 997,9 hPa 0,0 l/m 0 min 2 min 0 W/m 51,5 km/h (7 Bft) 95,74 %
03.03.2019 22:14 12,9 C 12,2 C 11,7 C 80 % 997,7 hPa 0,0 l/m 0 min 0 min 0 W/m 29,0 km/h (5 Bft) 95,65 %
03.03.2019 22:16 12,9 C 12,2 C 11,7 C 80 % 997,7 hPa 0,0 l/m 0 min 0 min 0 W/m 29,0 km/h (5 Bft) 95,74 %
03.03.2019 22:18 12,9 C 12,2 C 11,7 C 80 % 997,9 hPa 0,0 l/m 0 min 0 min 0 W/m 35,4 km/h (5 Bft) 97,87 %
03.03.2019 22:20 12,9 C 12,2 C 11,7 C 80 % 997,7 hPa 0,0 l/m 0 min 0 min 0 W/m 32,2 km/h (5 Bft) 95,74 %
03.03.2019 22:22 12,9 C 12,2 C 11,7 C 80 % 997,7 hPa 0,0 l/m 0 min 0 min 0 W/m 29,0 km/h (5 Bft) 93,62 %
03.03.2019 22:24 12,9 C 12,2 C 11,7 C 80 % 997,7 hPa 0,0 l/m 0 min 0 min 0 W/m 22,5 km/h (4 Bft) 95,74 %
03.03.2019 22:26 12,9 C 12,2 C 11,7 C 80 % 997,9 hPa 0,0 l/m 0 min 0 min 0 W/m 25,7 km/h (4 Bft) 95,65 %
03.03.2019 22:28 12,9 C 12,2 C 11,7 C 80 % 997,7 hPa 0,0 l/m 0 min 0 min 0 W/m 29,0 km/h (5 Bft) 95,74 %
03.03.2019 22:30 12,8 C 12,2 C 11,7 C 80 % 997,7 hPa 0,0 l/m 0 min 0 min 0 W/m 35,4 km/h (5 Bft) 95,74 %
03.03.2019 22:32 12,8 C 12,2 C 11,7 C 80 % 997,9 hPa 0,0 l/m 0 min 0 min 0 W/m 25,7 km/h (4 Bft) 93,62 %
03.03.2019 22:34 12,8 C 12,2 C 11,7 C 80 % 997,7 hPa 0,0 l/m 0 min 0 min 0 W/m 25,7 km/h (4 Bft) 95,74 %
03.03.2019 22:36 12,8 C 12,2 C 11,7 C 80 % 997,7 hPa 0,0 l/m 0 min 0 min 0 W/m 38,6 km/h (5 Bft) 95,74 %
03.03.2019 22:38 12,8 C 12,2 C 11,7 C 80 % 997,6 hPa 0,0 l/m 0 min 0 min 0 W/m 22,5 km/h (4 Bft) 95,65 %
03.03.2019 22:40 12,8 C 12,2 C 11,7 C 80 % 997,7 hPa 0,0 l/m 0 min 0 min 0 W/m 29,0 km/h (5 Bft) 93,62 %
03.03.2019 22:42 12,8 C 12,2 C 11,7 C 80 % 997,6 hPa 0,0 l/m 0 min 0 min 0 W/m 41,8 km/h (6 Bft) 95,74 %
03.03.2019 22:44 12,9 C 12,2 C 11,7 C 79 % 997,5 hPa 0,0 l/m 0 min 0 min 0 W/m 38,6 km/h (5 Bft) 95,74 %
03.03.2019 22:46 12,9 C 12,2 C 11,7 C 79 % 997,4 hPa 0,0 l/m 0 min 0 min 0 W/m 29,0 km/h (5 Bft) 93,62 %
03.03.2019 22:48 12,9 C 12,2 C 11,7 C 79 % 997,3 hPa 0,0 l/m 0 min 0 min 0 W/m 35,4 km/h (5 Bft) 97,83 %
03.03.2019 22:50 12,9 C 12,2 C 11,7 C 79 % 997,4 hPa 0,0 l/m 0 min 0 min 0 W/m 25,7 km/h (4 Bft) 95,74 %
03.03.2019 22:52 12,9 C 12,2 C 11,7 C 79 % 997,2 hPa 0,0 l/m 0 min 0 min 0 W/m 32,2 km/h (5 Bft) 95,74 %
03.03.2019 22:54 12,9 C 12,2 C 11,7 C 79 % 997,1 hPa 0,0 l/m 0 min 0 min 0 W/m 25,7 km/h (4 Bft) 95,74 %
03.03.2019 22:56 12,9 C 12,2 C 11,7 C 79 % 997,1 hPa 0,0 l/m 0 min 0 min 0 W/m 32,2 km/h (5 Bft) 97,87 %
03.03.2019 22:58 12,9 C 12,2 C 11,7 C 79 % 997,0 hPa 0,0 l/m 0 min 0 min 0 W/m 32,2 km/h (5 Bft) 93,62 %
03.03.2019 23:00 12,9 C 12,2 C 11,7 C 79 % 997,0 hPa 0,0 l/m 0 min 0 min 0 W/m 32,2 km/h (5 Bft) 97,83 %
03.03.2019 23:02 12,9 C 12,2 C 11,7 C 79 % 996,9 hPa 0,0 l/m 0 min 0 min 0 W/m 29,0 km/h (5 Bft) 95,74 %
03.03.2019 23:04 12,9 C 12,2 C 11,7 C 79 % 996,7 hPa 0,0 l/m 0 min 0 min 0 W/m 32,2 km/h (5 Bft) 97,87 %
03.03.2019 23:06 12,9 C 12,2 C 11,7 C 79 % 996,7 hPa 0,0 l/m 0 min 0 min 0 W/m 41,8 km/h (6 Bft) 95,74 %
03.03.2019 23:08 12,9 C 12,2 C 11,7 C 79 % 996,7 hPa 0,0 l/m 0 min 0 min 0 W/m 35,4 km/h (5 Bft) 97,87 %
03.03.2019 23:10 12,9 C 12,2 C 11,7 C 79 % 996,7 hPa 0,0 l/m 0 min 0 min 0 W/m 22,5 km/h (4 Bft) 100,00 %
03.03.2019 23:12 12,9 C 12,2 C 11,7 C 79 % 996,8 hPa 0,0 l/m 0 min 0 min 0 W/m 38,6 km/h (5 Bft) 100,00 %
03.03.2019 23:14 12,9 C 12,2 C 11,7 C 79 % 996,7 hPa 0,0 l/m 0 min 0 min 0 W/m 29,0 km/h (5 Bft) 100,00 %
03.03.2019 23:16 12,9 C 12,2 C 11,7 C 79 % 996,7 hPa 0,0 l/m 0 min 0 min 0 W/m 22,5 km/h (4 Bft) 100,00 %
03.03.2019 23:18 12,9 C 12,2 C 11,7 C 79 % 996,5 hPa 0,0 l/m 0 min 0 min 0 W/m 25,7 km/h (4 Bft) 97,87 %
03.03.2019 23:20 12,9 C 12,2 C 11,7 C 79 % 996,3 hPa 0,0 l/m 0 min 0 min 0 W/m 22,5 km/h (4 Bft) 97,87 %
03.03.2019 23:22 12,9 C 12,2 C 11,7 C 79 % 996,2 hPa 0,0 l/m 0 min 0 min 0 W/m 32,2 km/h (5 Bft) 95,74 %
03.03.2019 23:24 12,9 C 12,2 C 11,7 C 79 % 996,1 hPa 0,0 l/m 0 min 0 min 0 W/m 35,4 km/h (5 Bft) 97,83 %
03.03.2019 23:26 12,9 C 12,2 C 11,7 C 79 % 996,0 hPa 0,0 l/m 0 min 0 min 0 W/m 22,5 km/h (4 Bft) 97,87 %
03.03.2019 23:28 12,9 C 12,2 C 11,7 C 79 % 996,0 hPa 0,0 l/m 0 min 0 min 0 W/m 32,2 km/h (5 Bft) 100,00 %
03.03.2019 23:30 12,9 C 12,2 C 11,7 C 79 % 995,9 hPa 0,0 l/m 0 min 0 min 0 W/m 25,7 km/h (4 Bft) 93,62 %
03.03.2019 23:32 12,9 C 12,2 C 11,7 C 79 % 995,8 hPa 0,0 l/m 0 min 0 min 0 W/m 25,7 km/h (4 Bft) 97,87 %
03.03.2019 23:34 12,9 C 12,2 C 11,7 C 79 % 995,5 hPa 0,0 l/m 0 min 0 min 0 W/m 29,0 km/h (5 Bft) 97,87 %
03.03.2019 23:36 12,8 C 12,2 C 11,7 C 78 % 995,5 hPa 0,0 l/m 0 min 0 min 0 W/m 29,0 km/h (5 Bft) 97,83 %
03.03.2019 23:38 12,8 C 12,2 C 11,7 C 78 % 995,6 hPa 0,0 l/m 0 min 0 min 0 W/m 22,5 km/h (4 Bft) 97,92 %
03.03.2019 23:40 12,8 C 12,2 C 11,7 C 78 % 995,6 hPa 0,0 l/m 0 min 0 min 0 W/m 19,3 km/h (3 Bft) 97,87 %
03.03.2019 23:42 12,9 C 12,2 C 11,7 C 78 % 995,7 hPa 0,0 l/m 0 min 0 min 0 W/m 22,5 km/h (4 Bft) 97,87 %
03.03.2019 23:44 12,9 C 12,2 C 11,7 C 78 % 995,7 hPa 0,0 l/m 0 min 0 min 0 W/m 29,0 km/h (5 Bft) 97,87 %
03.03.2019 23:46 12,8 C 12,2 C 11,7 C 78 % 995,4 hPa 0,0 l/m 0 min 0 min 0 W/m 25,7 km/h (4 Bft) 95,74 %
03.03.2019 23:48 12,8 C 12,2 C 11,7 C 78 % 995,3 hPa 0,0 l/m 0 min 0 min 0 W/m 29,0 km/h (5 Bft) 95,65 %
03.03.2019 23:50 12,8 C 12,2 C 11,7 C 78 % 995,3 hPa 0,0 l/m 0 min 0 min 0 W/m 35,4 km/h (5 Bft) 95,74 %
03.03.2019 23:52 12,8 C 12,2 C 11,7 C 78 % 995,3 hPa 0,0 l/m 0 min 0 min 0 W/m 35,4 km/h (5 Bft) 97,87 %
03.03.2019 23:54 12,8 C 12,2 C 11,7 C 78 % 995,3 hPa 0,0 l/m 0 min 0 min 0 W/m 32,2 km/h (5 Bft) 97,87 %
03.03.2019 23:56 12,8 C 12,2 C 11,7 C 78 % 995,2 hPa 0,0 l/m 0 min 0 min 0 W/m 22,5 km/h (4 Bft) 97,87 %
03.03.2019 23:58 12,8 C 12,2 C 11,7 C 78 % 995,3 hPa 0,0 l/m 0 min 0 min 0 W/m 22,5 km/h (4 Bft) 97,83 %
_ Min-Zeit 00:40 04:48 04:46 23:36 23:56 - - - - 00:02 00:02
Minimum _ 9,2 C 7,8 C 7,2 C 78 % 995,2 hPa - - - - 6,4 km/h (2 Bft) 20,00 %
_ Max-Zeit 22:06 21:06 21:34 10:54 00:00 06:10 00:00 05:10 12:32 14:26 01:18
Maximum _ 12,9 C 12,2 C 11,7 C 94 % 1009,5 hPa 0,2 l/m 0 min 5 min 158 W/m 57,9 km/h
S-SO (7 Bft)
100,00 %
Durchschnitt _ 10,9 C 10,1 C 9,5 C 86 % 1004,1 hPa #1,2 l/m #0 min. #7:19 h 46 W/m 29,4 km/h (5 Bft) 97,23 %
© 2019 W. Hausmann